KJ6MC Weather Reports


Display with metric or nautical units.
time (UTC)temp
F
wind
direction
speed
MPH
gust
MPH
rain 1hr
in
rain 24hr
in
rain mn
in
humidity
%
barometer
mb
20260901192648 73 278 2.0 8.0 0.00 0.00 0.00 57 1015.4
20260901192555 73 238 2.0 8.0 0.00 0.00 0.00 57 1015.5
20260901192440 73 255 2.0 8.0 0.00 0.00 0.00 57 1015.5
20260901192344 73 226 3.0 9.0 0.00 0.00 0.00 57 1015.5
20260901192330 73 215 3.0 9.0 0.00 0.00 0.00 57 1015.4
20260901192141 73 291 3.0 9.0 0.00 0.00 0.00 57 1015.5
20260901192041 73 239 3.0 9.0 0.00 0.00 0.00 57 1015.5
20260901191941 73 243 3.0 9.0 0.00 0.00 0.00 57 1015.4
20260901191936 73 276 3.0 9.0 0.00 0.00 0.00 56 1015.5
20260901191837 73 203 3.0 9.0 0.00 0.00 0.00 57 1015.5
20260901191824 73 217 3.0 9.0 0.00 0.00 0.00 57 1015.5
20260901191637 73 243 3.0 9.0 0.00 0.00 0.00 57 1015.4
20260901191535 73 200 3.0 9.0 0.00 0.00 0.00 57 1015.5
20260901191428 73 233 2.0 9.0 0.00 0.00 0.00 57 1015.5
20260901191328 73 235 2.0 8.0 0.00 0.00 0.00 56 1015.5
20260901191228 73 222 2.0 8.0 0.00 0.00 0.00 57 1015.5
20260901191208 73 238 3.0 8.0 0.00 0.00 0.00 57 1015.5
20260901191128 72 275 3.0 11.0 0.00 0.00 0.00 57 1015.5
20260901191029 72 219 3.0 12.0 0.00 0.00 0.00 58 1015.5
20260901190930 71 225 3.0 12.0 0.00 0.00 0.00 58 1015.5
20260901190924 72 240 3.0 12.0 0.00 0.00 0.00 58 1015.5
20260901190825 72 290 3.0 12.0 0.00 0.00 0.00 58 1015.5
20260901190811 71 307 3.0 12.0 0.00 0.00 0.00 58 1015.5
20260901190622 71 225 3.0 12.0 0.00 0.00 0.00 59 1015.5
20260901190522 71 257 4.0 12.0 0.00 0.00 0.00 59 1015.5
20260901190427 71 230 4.0 12.0 0.00 0.00 0.00 59 1015.6
20260901190317 71 248 4.0 12.0 0.00 0.00 0.00 58 1015.6
20260901190217 71 218 4.0 12.0 0.00 0.00 0.00 59 1015.6
20260901190156 71 215 3.0 12.0 0.00 0.00 0.00 59 1015.6
20260901190117 71 231 3.0 12.0 0.00 0.00 0.00 59 1015.6
20260901190016 71 282 3.0 12.0 0.00 0.00 0.00 59 1015.6
20260901185914 71 230 3.0 12.0 0.00 0.00 0.00 61 1015.6
20260901185814 71 210 3.0 12.0 0.00 0.00 0.00 61 1015.6
20260901185713 70 217 3.0 12.0 0.00 0.00 0.00 61 1015.6
20260901185650 70 239 3.0 12.0 0.00 0.00 0.00 61 1015.6
20260901185613 70 211 3.0 12.0 0.00 0.00 0.00 60 1015.6
20260901185511 70 172 3.0 10.0 0.00 0.00 0.00 61 1015.7
20260901185404 70 231 3.0 10.0 0.00 0.00 0.00 61 1015.7
20260901185306 70 238 3.0 9.0 0.00 0.00 0.00 61 1015.6
20260901185205 70 273 3.0 9.0 0.00 0.00 0.00 62 1015.7
20260901185143 70 233 3.0 9.0 0.00 0.00 0.00 62 1015.7
20260901185104 70 242 3.0 9.0 0.00 0.00 0.00 61 1015.7
20260901185006 70 239 3.0 9.0 0.00 0.00 0.00 61 1015.7
20260901184901 70 264 3.0 11.0 0.00 0.00 0.00 62 1015.7
20260901184800 69 222 3.0 11.0 0.00 0.00 0.00 62 1015.7
20260901184701 69 218 3.0 11.0 0.00 0.00 0.00 61 1015.7
20260901184638 69 219 3.0 11.0 0.00 0.00 0.00 61 1015.7
20260901184600 69 256 3.0 11.0 0.00 0.00 0.00 61 1015.7
20260901184459 69 248 3.0 11.0 0.00 0.00 0.00 61 1015.8
20260901184357 69 212 3.0 11.0 0.00 0.00 0.00 61 1015.8
20260901184256 69 229 3.0 11.0 0.00 0.00 0.00 61 1015.8
20260901184156 69 219 3.0 11.0 0.00 0.00 0.00 61 1015.8
20260901184131 69 236 3.0 11.0 0.00 0.00 0.00 61 1015.8
20260901184056 69 236 3.0 11.0 0.00 0.00 0.00 61 1015.8
20260901183952 69 242 3.0 11.0 0.00 0.00 0.00 61 1015.8
20260901183847 70 236 3.0 10.0 0.00 0.00 0.00 61 1015.8
20260901183747 70 229 3.0 10.0 0.00 0.00 0.00 61 1015.8
20260901183625 69 236 4.0 10.0 0.00 0.00 0.00 61 1015.8
20260901183546 70 236 4.0 10.0 0.00 0.00 0.00 60 1015.8
20260901183446 70 259 4.0 12.0 0.00 0.00 0.00 61 1015.8
20260901183342 70 245 4.0 12.0 0.00 0.00 0.00 60 1015.8
20260901183242 70 243 4.0 12.0 0.00 0.00 0.00 61 1015.7
20260901183143 70 235 3.0 12.0 0.00 0.00 0.00 61 1015.7
20260901183120 70 239 3.0 12.0 0.00 0.00 0.00 61 1015.7
20260901183042 70 245 4.0 12.0 0.00 0.00 0.00 60 1015.7
20260901182940 70 235 4.0 12.0 0.00 0.00 0.00 60 1015.7
20260901182835 70 222 4.0 12.0 0.00 0.00 0.00 60 1015.7
20260901182735 70 242 4.0 12.0 0.00 0.00 0.00 60 1015.8
20260901182635 70 267 3.0 12.0 0.00 0.00 0.00 60 1015.8
20260901182614 70 203 3.0 12.0 0.00 0.00 0.00 59 1015.8
20260901182536 70 236 3.0 12.0 0.00 0.00 0.00 59 1015.8
20260901182435 70 225 2.0 10.0 0.00 0.00 0.00 61 1015.8
20260901182331 70 256 2.0 10.0 0.00 0.00 0.00 61 1015.7
20260901182229 70 223 2.0 10.0 0.00 0.00 0.00 61 1015.7
20260901182129 70 253 2.0 10.0 0.00 0.00 0.00 61 1015.7
20260901182106 70 225 2.0 10.0 0.00 0.00 0.00 61 1015.7
20260901182030 70 226 2.0 8.0 0.00 0.00 0.00 61 1015.7
20260901181927 70 243 2.0 8.0 0.00 0.00 0.00 62 1015.7
20260901181824 70 235 1.0 8.0 0.00 0.00 0.00 62 1015.8
20260901181722 70 231 1.0 8.0 0.00 0.00 0.00 64 1015.8
20260901181622 69 250 2.0 8.0 0.00 0.00 0.00 64 1015.8
20260901181602 69 250 2.0 8.0 0.00 0.00 0.00 65 1015.8
20260901181523 69 250 2.0 8.0 0.00 0.00 0.00 65 1015.8
20260901181423 69 250 2.0 8.0 0.00 0.00 0.00 63 1015.8
20260901181321 69 248 4.0 11.0 0.00 0.00 0.00 64 1015.8
20260901181317 69 235 3.0 9.0 0.00 0.00 0.00 64 1015.8
20260901181217 69 208 3.0 11.0 0.00 0.00 0.00 64 1015.8
20260901181207 69 266 3.0 11.0 0.00 0.00 0.00 65 1015.8
20260901181017 68 231 4.0 11.0 0.00 0.00 0.00 64 1015.8
20260901180917 68 229 4.0 11.0 0.00 0.00 0.00 64 1015.7
20260901180812 68 230 4.0 11.0 0.00 0.00 0.00 64 1015.8
20260901180713 68 232 4.0 11.0 0.00 0.00 0.00 63 1015.8
20260901180613 68 245 4.0 11.0 0.00 0.00 0.00 63 1015.7
20260901180550 68 233 4.0 11.0 0.00 0.00 0.00 63 1015.7
20260901180513 69 230 4.0 11.0 0.00 0.00 0.00 63 1015.8
20260901180412 69 236 4.0 11.0 0.00 0.00 0.00 62 1015.7
20260901180312 69 245 4.0 11.0 0.00 0.00 0.00 63 1015.7
20260901180212 69 228 3.0 11.0 0.00 0.00 0.00 63 1015.7
20260901180112 69 225 3.0 11.0 0.00 0.00 0.00 63 1015.7
20260901180057 69 233 3.0 11.0 0.00 0.00 0.00 63 1015.7
20260901180012 69 205 3.0 11.0 0.00 0.00 0.00 63 1015.8
20260901175912 69 219 3.0 11.0 0.00 0.00 0.00 62 1015.7
20260901175813 69 287 3.0 11.0 0.00 0.00 0.00 62 1015.7
20260901175711 69 165 3.0 10.0 0.00 0.00 0.00 63 1015.7
20260901175610 69 214 3.0 9.0 0.00 0.00 0.00 63 1015.7
20260901175538 69 141 3.0 9.0 0.00 0.00 0.00 63 1015.7
20260901175510 69 238 3.0 9.0 0.00 0.00 0.00 63 1015.7
20260901175411 69 146 3.0 9.0 0.00 0.00 0.00 63 1015.7
20260901175311 68 212 2.0 6.0 0.00 0.00 0.00 64 1015.7
20260901175209 68 226 2.0 6.0 0.00 0.00 0.00 65 1015.7
20260901175108 68 193 3.0 6.0 0.00 0.00 0.00 65 1015.7
20260901175034 68 250 3.0 6.0 0.00 0.00 0.00 65 1015.7
20260901175009 68 250 3.0 6.0 0.00 0.00 0.00 64 1015.7
20260901174909 68 224 3.0 6.0 0.00 0.00 0.00 64 1015.7
20260901174808 68 219 3.0 11.0 0.00 0.00 0.00 64 1015.6
20260901174708 68 218 3.0 11.0 0.00 0.00 0.00 65 1015.6
20260901174604 68 217 4.0 11.0 0.00 0.00 0.00 64 1015.6
20260901174533 68 228 4.0 12.0 0.00 0.00 0.00 64 1015.6
20260901174504 68 150 4.0 12.0 0.00 0.00 0.00 64 1015.6
20260901174404 68 243 4.0 12.0 0.00 0.00 0.00 64 1015.6
20260901174305 68 233 4.0 12.0 0.00 0.00 0.00 65 1015.6
20260901174203 67 233 4.0 12.0 0.00 0.00 0.00 65 1015.6
20260901174057 67 219 4.0 12.0 0.00 0.00 0.00 65 1015.7
20260901174031 67 160 4.0 12.0 0.00 0.00 0.00 65 1015.7
20260901173957 68 231 5.0 12.0 0.00 0.00 0.00 64 1015.6
20260901173858 68 235 4.0 12.0 0.00 0.00 0.00 64 1015.6
20260901173756 68 228 4.0 12.0 0.00 0.00 0.00 65 1015.6
20260901173657 68 214 4.0 12.0 0.00 0.00 0.00 65 1015.6
20260901173552 67 224 3.0 12.0 0.00 0.00 0.00 64 1015.6
20260901173533 67 228 3.0 12.0 0.00 0.00 0.00 64 1015.6
20260901173450 67 229 3.0 11.0 0.00 0.00 0.00 64 1015.6
20260901173351 67 235 3.0 11.0 0.00 0.00 0.00 64 1015.6
20260901173251 67 214 4.0 11.0 0.00 0.00 0.00 65 1015.6
20260901173150 67 246 4.0 11.0 0.00 0.00 0.00 65 1015.6
20260901173049 67 233 4.0 11.0 0.00 0.00 0.00 65 1015.6
20260901173032 67 241 4.0 11.0 0.00 0.00 0.00 65 1015.6
20260901172948 67 242 3.0 11.0 0.00 0.00 0.00 66 1015.6
20260901172846 67 155 3.0 11.0 0.00 0.00 0.00 66 1015.6
20260901172747 67 222 3.0 11.0 0.00 0.00 0.00 66 1015.5
20260901172645 67 228 4.0 11.0 0.00 0.00 0.00 66 1015.6
20260901172543 67 156 4.0 11.0 0.00 0.00 0.00 66 1015.6
20260901172442 67 236 4.0 11.0 0.00 0.00 0.00 66 1015.6
20260901172340 67 264 5.0 11.0 0.00 0.00 0.00 66 1015.6
20260901172253 67 242 5.0 10.0 0.00 0.00 0.00 67 1015.5
20260901172241 67 218 4.0 10.0 0.00 0.00 0.00 66 1015.6
20260901172149 67 264 5.0 10.0 0.00 0.00 0.00 67 1015.6
20260901172139 67 242 5.0 10.0 0.00 0.00 0.00 67 1015.5
20260901171932 67 246 5.0 10.0 0.00 0.00 0.00 67 1015.5
20260901171833 67 235 6.0 10.0 0.00 0.00 0.00 67 1015.6
20260901171732 67 245 6.0 12.0 0.00 0.00 0.00 66 1015.5
20260901171632 67 208 6.0 12.0 0.00 0.00 0.00 67 1015.5
20260901171528 67 235 5.0 12.0 0.00 0.00 0.00 66 1015.5
20260901171426 67 236 5.0 12.0 0.00 0.00 0.00 66 1015.5
20260901171327 67 169 5.0 12.0 0.00 0.00 0.00 66 1015.6
20260901171227 67 193 4.0 12.0 0.00 0.00 0.00 66 1015.5
20260901171126 67 211 4.0 12.0 0.00 0.00 0.00 66 1015.6
20260901171044 68 214 4.0 12.0 0.00 0.00 0.00 66 1015.5
20260901171023 68 222 4.0 12.0 0.00 0.00 0.00 67 1015.5
20260901170920 68 210 4.0 12.0 0.00 0.00 0.00 66 1015.5
20260901170822 68 243 4.0 12.0 0.00 0.00 0.00 67 1015.5
20260901170751 68 253 3.0 9.0 0.00 0.00 0.00 68 1015.4
20260901170721 68 235 3.0 9.0 0.00 0.00 0.00 67 1015.5
20260901170642 68 259 3.0 9.0 0.00 0.00 0.00 68 1015.4
20260901170515 68 228 3.0 9.0 0.00 0.00 0.00 67 1015.4
20260901170415 68 224 3.0 9.0 0.00 0.00 0.00 68 1015.4
20260901170314 67 249 3.0 9.0 0.00 0.00 0.00 69 1015.4
20260901170215 67 203 4.0 9.0 0.00 0.00 0.00 69 1015.4
20260901170114 67 203 4.0 9.0 0.00 0.00 0.00 69 1015.4
20260901170030 67 210 4.0 9.0 0.00 0.00 0.00 69 1015.4
20260901170007 67 150 4.0 9.0 0.00 0.00 0.00 69 1015.4
20260901165906 67 212 4.0 9.0 0.00 0.00 0.00 69 1015.5
20260901165806 67 236 4.0 9.0 0.00 0.00 0.00 70 1015.5
20260901165706 66 242 4.0 9.0 0.00 0.00 0.00 71 1015.4
20260901165607 66 158 4.0 9.0 0.00 0.00 0.00 71 1015.4
20260901165528 66 200 4.0 9.0 0.00 0.00 0.00 70 1015.4
20260901165503 66 221 4.0 9.0 0.00 0.00 0.00 70 1015.4
20260901165400 66 233 5.0 10.0 0.00 0.00 0.00 69 1015.4
20260901165300 66 225 5.0 10.0 0.00 0.00 0.00 70 1015.4
20260901165201 66 167 5.0 10.0 0.00 0.00 0.00 69 1015.5
20260901165100 66 248 5.0 10.0 0.00 0.00 0.00 69 1015.5
20260901165028 66 241 5.0 10.0 0.00 0.00 0.00 68 1015.5
20260901164955 67 217 5.0 10.0 0.00 0.00 0.00 68 1015.5
20260901164854 67 218 5.0 10.0 0.00 0.00 0.00 68 1015.5
20260901164801 67 141 4.0 10.0 0.00 0.00 0.00 69 1015.5
20260901164754 67 231 5.0 10.0 0.00 0.00 0.00 69 1015.5
20260901164655 67 226 4.0 10.0 0.00 0.00 0.00 69 1015.5
20260901164639 67 150 4.0 10.0 0.00 0.00 0.00 69 1015.5
20260901164451 67 157 4.0 10.0 0.00 0.00 0.00 69 1015.5
20260901164349 67 210 4.0 9.0 0.00 0.00 0.00 69 1015.5
20260901164248 67 253 3.0 8.0 0.00 0.00 0.00 69 1015.4
20260901164148 67 259 3.0 8.0 0.00 0.00 0.00 69 1015.4
20260901164048 67 224 3.0 7.0 0.00 0.00 0.00 68 1015.4
20260901164028 67 236 3.0 7.0 0.00 0.00 0.00 68 1015.4
20260901163946 67 231 3.0 7.0 0.00 0.00 0.00 68 1015.5
20260901163847 67 216 3.0 7.0 0.00 0.00 0.00 70 1015.5
20260901163744 67 158 3.0 7.0 0.00 0.00 0.00 70 1015.5
20260901163644 66 238 3.0 7.0 0.00 0.00 0.00 70 1015.5
20260901163542 66 229 3.0 7.0 0.00 0.00 0.00 69 1015.5
20260901163528 66 167 3.0 7.0 0.00 0.00 0.00 69 1015.5
20260901163438 66 210 3.0 7.0 0.00 0.00 0.00 69 1015.5
20260901163339 66 146 3.0 7.0 0.00 0.00 0.00 70 1015.4
20260901163238 66 167 3.0 7.0 0.00 0.00 0.00 70 1015.4
20260901163139 66 236 3.0 7.0 0.00 0.00 0.00 70 1015.5
20260901163037 66 195 3.0 6.0 0.00 0.00 0.00 71 1015.4
20260901163026 66 167 3.0 6.0 0.00 0.00 0.00 71 1015.4
20260901162930 66 142 3.0 6.0 0.00 0.00 0.00 71 1015.4
20260901162831 65 248 3.0 8.0 0.00 0.00 0.00 72 1015.4
20260901162751 65 198 3.0 8.0 0.00 0.00 0.00 70 1015.3
20260901162728 65 224 3.0 8.0 0.00 0.00 0.00 71 1015.4
20260901162645 65 221 3.0 8.0 0.00 0.00 0.00 71 1015.4
20260901162635 65 198 3.0 8.0 0.00 0.00 0.00 70 1015.3
20260901162423 65 239 4.0 8.0 0.00 0.00 0.00 70 1015.3
20260901162322 65 221 4.0 9.0 0.00 0.00 0.00 70 1015.3
20260901162222 65 221 4.0 9.0 0.00 0.00 0.00 70 1015.3
20260901162123 65 166 4.0 9.0 0.00 0.00 0.00 70 1015.4
20260901162025 65 172 4.0 10.0 0.00 0.00 0.00 70 1015.3
20260901161917 65 163 4.0 10.0 0.00 0.00 0.00 70 1015.3
20260901161817 65 163 3.0 10.0 0.00 0.00 0.00 71 1015.3
20260901161740 65 231 4.0 10.0 0.00 0.00 0.00 71 1015.4
20260901161716 65 150 3.0 10.0 0.00 0.00 0.00 71 1015.3
20260901161616 65 190 3.0 10.0 0.00 0.00 0.00 70 1015.3
20260901161523 65 231 4.0 10.0 0.00 0.00 0.00 71 1015.4
20260901161410 65 208 4.0 10.0 0.00 0.00 0.00 70 1015.4
20260901161311 65 225 4.0 10.0 0.00 0.00 0.00 70 1015.3
20260901161211 65 233 3.0 10.0 0.00 0.00 0.00 70 1015.4
20260901161111 65 136 3.0 9.0 0.00 0.00 0.00 71 1015.2
20260901161012 65 193 3.0 8.0 0.00 0.00 0.00 70 1015.3
20260901160904 65 232 3.0 8.0 0.00 0.00 0.00 70 1015.4
20260901160804 65 138 3.0 8.0 0.00 0.00 0.00 70 1015.4
20260901160729 65 162 3.0 8.0 0.00 0.00 0.00 70 1015.4
20260901160704 65 210 3.0 8.0 0.00 0.00 0.00 70 1015.3
20260901160621 65 236 3.0 8.0 0.00 0.00 0.00 70 1015.3
20260901160610 65 162 3.0 8.0 0.00 0.00 0.00 70 1015.4
20260901160401 65 177 3.0 7.0 0.00 0.00 0.00 70 1015.3
20260901160258 65 104 3.0 7.0 0.00 0.00 0.00 70 1015.3
20260901160158 65 213 3.0 7.0 0.00 0.00 0.00 71 1015.3
20260901160058 65 139 3.0 7.0 0.00 0.00 0.00 71 1015.3
20260901160003 65 127 3.0 7.0 0.00 0.00 0.00 71 1015.3
20260901155958 65 177 3.0 7.0 0.00 0.00 0.00 71 1015.3
20260901155856 64 115 3.0 10.0 0.00 0.00 0.00 71 1015.3
20260901155756 64 130 3.0 10.0 0.00 0.00 0.00 71 1015.2
20260901155655 64 133 3.0 10.0 0.00 0.00 0.00 71 1015.2
20260901155555 64 141 3.0 10.0 0.00 0.00 0.00 71 1015.2
20260901155459 64 205 3.0 10.0 0.00 0.00 0.00 71 1015.2
20260901155451 64 198 3.0 10.0 0.00 0.00 0.00 71 1015.2
20260901155352 64 221 3.0 10.0 0.00 0.00 0.00 71 1015.2
20260901155250 64 208 3.0 10.0 0.00 0.00 0.00 71 1015.2
20260901155150 64 242 3.0 10.0 0.00 0.00 0.00 72 1015.2
20260901155050 64 187 3.0 10.0 0.00 0.00 0.00 72 1015.2
20260901154959 64 178 3.0 10.0 0.00 0.00 0.00 72 1015.2
20260901154946 64 134 3.0 10.0 0.00 0.00 0.00 72 1015.2
20260901154840 64 243 2.0 9.0 0.00 0.00 0.00 73 1015.2
20260901154741 64 134 2.0 6.0 0.00 0.00 0.00 73 1015.2
20260901154640 63 200 2.0 7.0 0.00 0.00 0.00 73 1015.1
20260901154541 63 224 3.0 7.0 0.00 0.00 0.00 74 1015.2
20260901154500 63 161 3.0 7.0 0.00 0.00 0.00 74 1015.1
20260901154440 63 207 3.0 7.0 0.00 0.00 0.00 74 1015.1
20260901154337 63 166 3.0 7.0 0.00 0.00 0.00 74 1015.1
20260901154237 63 139 3.0 7.0 0.00 0.00 0.00 74 1015.1
20260901154137 63 161 3.0 7.0 0.00 0.00 0.00 75 1015.1
20260901154037 62 134 3.0 7.0 0.00 0.00 0.00 75 1015.1
20260901153957 62 124 3.0 7.0 0.00 0.00 0.00 75 1015.1
20260901153934 62 143 3.0 7.0 0.00 0.00 0.00 75 1015.1
20260901153830 62 163 3.0 7.0 0.00 0.00 0.00 75 1015.1
20260901153728 62 141 4.0 7.0 0.00 0.00 0.00 75 1015.0
20260901153628 62 152 4.0 10.0 0.00 0.00 0.00 76 1015.0
20260901153529 62 161 4.0 10.0 0.00 0.00 0.00 76 1015.0
20260901153458 62 143 4.0 10.0 0.00 0.00 0.00 76 1015.0
20260901153428 62 136 4.0 10.0 0.00 0.00 0.00 77 1015.0
20260901153324 61 134 4.0 10.0 0.00 0.00 0.00 76 1015.1
20260901153222 61 225 4.0 10.0 0.00 0.00 0.00 77 1015.0
20260901153122 61 132 4.0 10.0 0.00 0.00 0.00 77 1015.0
20260901153024 61 132 4.0 10.0 0.00 0.00 0.00 78 1015.0
20260901152957 61 141 4.0 10.0 0.00 0.00 0.00 78 1015.0
20260901152923 61 141 4.0 10.0 0.00 0.00 0.00 77 1015.0
20260901152817 61 149 3.0 10.0 0.00 0.00 0.00 77 1015.0
20260901152716 61 139 3.0 10.0 0.00 0.00 0.00 78 1015.0
20260901152617 60 138 3.0 7.0 0.00 0.00 0.00 78 1014.9
20260901152517 60 159 2.0 6.0 0.00 0.00 0.00 79 1014.9
20260901152457 60 112 2.0 6.0 0.00 0.00 0.00 79 1014.9
20260901152416 60 117 2.0 6.0 0.00 0.00 0.00 79 1014.8
20260901152311 60 226 2.0 6.0 0.00 0.00 0.00 79 1014.9
20260901152218 60 200 2.0 6.0 0.00 0.00 0.00 79 1014.8
20260901152210 60 122 2.0 6.0 0.00 0.00 0.00 79 1014.9
20260901152119 60 154 2.0 6.0 0.00 0.00 0.00 79 1014.9
20260901152111 60 200 2.0 6.0 0.00 0.00 0.00 79 1014.8
20260901151910 60 155 2.0 6.0 0.00 0.00 0.00 79 1014.8
20260901151807 60 162 2.0 6.0 0.00 0.00 0.00 79 1014.8
20260901151704 60 130 2.0 5.0 0.00 0.00 0.00 80 1014.7
20260901151604 60 138 2.0 5.0 0.00 0.00 0.00 80 1014.8
20260901151509 60 218 2.0 5.0 0.00 0.00 0.00 80 1014.7
20260901151456 60 226 2.0 5.0 0.00 0.00 0.00 80 1014.7
20260901151404 60 162 2.0 5.0 0.00 0.00 0.00 80 1014.7
20260901151258 60 134 2.0 6.0 0.00 0.00 0.00 80 1014.7
20260901151158 59 115 2.0 6.0 0.00 0.00 0.00 80 1014.7
20260901151059 59 175 2.0 6.0 0.00 0.00 0.00 80 1014.7
20260901151004 59 136 2.0 6.0 0.00 0.00 0.00 80 1014.7
20260901150954 59 136 2.0 6.0 0.00 0.00 0.00 81 1014.7
20260901150858 59 117 2.0 6.0 0.00 0.00 0.00 81 1014.7
20260901150754 59 139 2.0 6.0 0.00 0.00 0.00 81 1014.7
20260901150732 59 138 2.0 6.0 0.00 0.00 0.00 81 1014.6
20260901150652 59 165 2.0 6.0 0.00 0.00 0.00 81 1014.7
20260901150622 59 218 2.0 6.0 0.00 0.00 0.00 81 1014.7
20260901150452 59 141 2.0 6.0 0.00 0.00 0.00 81 1014.6
20260901150351 59 153 2.0 6.0 0.00 0.00 0.00 81 1014.6
20260901150248 59 146 2.0 5.0 0.00 0.00 0.00 81 1014.6
20260901150146 59 89 2.0 5.0 0.00 0.00 0.00 81 1014.6
20260901150047 59 150 2.0 5.0 0.00 0.00 0.00 81 1014.6
20260901145953 59 141 2.0 5.0 0.00 0.00 0.00 81 1014.6
20260901145947 59 143 2.0 5.0 0.00 0.00 0.00 81 1014.6
20260901145846 59 133 2.0 6.0 0.00 0.00 0.00 81 1014.6
20260901145741 59 128 2.0 6.0 0.00 0.00 0.00 81 1014.6
20260901145640 58 211 2.0 6.0 0.00 0.00 0.00 81 1014.6
20260901145542 58 114 2.0 6.0 0.00 0.00 0.00 81 1014.5
20260901145452 58 136 3.0 6.0 0.00 0.00 0.00 82 1014.5
20260901145441 58 124 3.0 6.0 0.00 0.00 0.00 82 1014.5
20260901145340 58 115 3.0 6.0 0.00 0.00 0.00 82 1014.5
20260901145239 58 126 3.0 6.0 0.00 0.00 0.00 82 1014.5
20260901145138 58 180 3.0 6.0 0.00 0.00 0.00 82 1014.4
20260901145039 58 141 3.0 6.0 0.00 0.00 0.00 82 1014.4
20260901144952 58 158 2.0 6.0 0.00 0.00 0.00 82 1014.4
20260901144938 58 127 2.0 6.0 0.00 0.00 0.00 82 1014.4
20260901144838 58 131 2.0 6.0 0.00 0.00 0.00 82 1014.4
20260901144738 58 163 2.0 6.0 0.00 0.00 0.00 82 1014.4
20260901144639 58 132 2.0 6.0 0.00 0.00 0.00 82 1014.4
20260901144539 58 146 2.0 6.0 0.00 0.00 0.00 83 1014.5
20260901144451 58 121 2.0 6.0 0.00 0.00 0.00 83 1014.5
20260901144439 58 84 2.0 6.0 0.00 0.00 0.00 83 1014.5
20260901144338 58 176 2.0 6.0 0.00 0.00 0.00 83 1014.4
20260901144239 58 106 2.0 6.0 0.00 0.00 0.00 83 1014.4
20260901144138 58 150 2.0 6.0 0.00 0.00 0.00 83 1014.4
20260901144040 58 108 3.0 7.0 0.00 0.00 0.00 83 1014.4
20260901143951 58 150 3.0 7.0 0.00 0.00 0.00 83 1014.3
20260901143936 58 120 3.0 7.0 0.00 0.00 0.00 83 1014.3
20260901143837 58 183 3.0 7.0 0.00 0.00 0.00 83 1014.3
20260901143736 57 148 3.0 7.0 0.00 0.00 0.00 83 1014.3
20260901143636 57 139 2.0 7.0 0.00 0.00 0.00 84 1014.3
20260901143532 57 136 2.0 7.0 0.00 0.00 0.00 84 1014.4
20260901143452 57 163 2.0 7.0 0.00 0.00 0.00 84 1014.3
20260901143430 57 167 2.0 7.0 0.00 0.00 0.00 84 1014.3
20260901143332 57 140 2.0 7.0 0.00 0.00 0.00 84 1014.3
20260901143230 57 168 2.0 7.0 0.00 0.00 0.00 84 1014.3
20260901143130 57 155 2.0 7.0 0.00 0.00 0.00 84 1014.3
20260901143029 57 153 2.0 7.0 0.00 0.00 0.00 85 1014.3
20260901142950 56 145 2.0 7.0 0.00 0.00 0.00 85 1014.3
20260901142928 56 150 2.0 7.0 0.00 0.00 0.00 85 1014.3
20260901142828 56 153 2.0 7.0 0.00 0.00 0.00 85 1014.3
20260901142726 56 123 2.0 7.0 0.00 0.00 0.00 85 1014.2
20260901142624 56 136 2.0 7.0 0.00 0.00 0.00 86 1014.3
20260901142524 56 98 2.0 7.0 0.00 0.00 0.00 86 1014.2
20260901142503 56 92 2.0 7.0 0.00 0.00 0.00 86 1014.2
20260901142418 56 162 2.0 7.0 0.00 0.00 0.00 86 1014.2
20260901142319 56 132 2.0 7.0 0.00 0.00 0.00 86 1014.2
20260901142219 56 157 2.0 7.0 0.00 0.00 0.00 86 1014.2
20260901142118 56 148 1.0 7.0 0.00 0.00 0.00 86 1014.2
20260901142016 56 162 1.0 4.0 0.00 0.00 0.00 86 1014.2
20260901141949 56 129 1.0 4.0 0.00 0.00 0.00 86 1014.2
20260901141916 56 163 1.0 4.0 0.00 0.00 0.00 86 1014.1
20260901141815 56 93 1.0 4.0 0.00 0.00 0.00 86 1014.1
20260901141715 55 129 1.0 4.0 0.00 0.00 0.00 86 1014.1
20260901141706 55 127 1.0 4.0 0.00 0.00 0.00 87 1014.1
20260901141612 55 150 1.0 4.0 0.00 0.00 0.00 86 1014.1
20260901141600 55 127 1.0 4.0 0.00 0.00 0.00 87 1014.1
20260901141410 55 102 1.0 4.0 0.00 0.00 0.00 87 1014.1
20260901141310 55 113 1.0 4.0 0.00 0.00 0.00 87 1014.0
20260901141208 55 117 1.0 4.0 0.00 0.00 0.00 87 1014.0
20260901141107 55 111 1.0 4.0 0.00 0.00 0.00 87 1014.0
20260901141005 55 111 1.0 4.0 0.00 0.00 0.00 87 1013.9
20260901140949 55 98 1.0 4.0 0.00 0.00 0.00 87 1013.9
20260901140904 55 106 1.0 4.0 0.00 0.00 0.00 87 1013.9
20260901140802 55 129 1.0 4.0 0.00 0.00 0.00 87 1013.9
20260901140707 55 161 1.0 4.0 0.00 0.00 0.00 87 1013.8
20260901140702 55 143 1.0 4.0 0.00 0.00 0.00 87 1013.8
20260901140607 55 160 1.0 4.0 0.00 0.00 0.00 87 1013.8
20260901140558 55 161 1.0 4.0 0.00 0.00 0.00 87 1013.8
20260901140355 55 162 1.0 4.0 0.00 0.00 0.00 87 1013.8
20260901140254 55 94 1.0 4.0 0.00 0.00 0.00 87 1013.8
20260901140155 55 117 1.0 4.0 0.00 0.00 0.00 87 1013.7
20260901140054 55 101 1.0 4.0 0.00 0.00 0.00 87 1013.7
20260901135954 55 153 1.0 4.0 0.00 0.00 0.00 87 1013.7
20260901135949 55 148 1.0 4.0 0.00 0.00 0.00 87 1013.7
20260901135848 55 97 1.0 4.0 0.00 0.00 0.00 87 1013.6
20260901135749 55 113 1.0 4.0 0.00 0.00 0.00 87 1013.6
20260901135648 55 137 2.0 4.0 0.00 0.00 0.00 87 1013.6
20260901135548 55 117 2.0 4.0 0.00 0.00 0.00 87 1013.6
20260901135451 55 115 2.0 4.0 0.00 0.00 0.00 87 1013.6
20260901135446 55 98 2.0 4.0 0.00 0.00 0.00 87 1013.6
20260901135346 55 150 2.0 4.0 0.00 0.00 0.00 87 1013.6
20260901135245 55 104 2.0 4.0 0.00 0.00 0.00 87 1013.6
20260901135220 55 104 1.0 4.0 0.00 0.00 0.00 87 1013.5
20260901135144 55 191 2.0 4.0 0.00 0.00 0.00 87 1013.5
20260901135045 55 106 2.0 4.0 0.00 0.00 0.00 87 1013.5
20260901134944 55 110 1.0 4.0 0.00 0.00 0.00 87 1013.5
20260901134844 55 143 1.0 4.0 0.00 0.00 0.00 87 1013.5
20260901134745 55 121 1.0 4.0 0.00 0.00 0.00 87 1013.4
20260901134644 55 107 1.0 4.0 0.00 0.00 0.00 87 1013.5
20260901134545 55 114 1.0 3.0 0.00 0.00 0.00 87 1013.5
20260901134444 55 141 1.0 3.0 0.00 0.00 0.00 87 1013.5
20260901134342 55 146 1.0 4.0 0.00 0.00 0.00 87 1013.5
20260901134240 55 129 1.0 4.0 0.00 0.00 0.00 87 1013.5
20260901134140 55 143 1.0 4.0 0.00 0.00 0.00 87 1013.5
20260901133938 55 155 1.0 4.0 0.00 0.00 0.00 88 1013.5
20260901133837 55 139 1.0 4.0 0.00 0.00 0.00 87 1013.4
20260901133734 55 177 1.0 4.0 0.00 0.00 0.00 88 1013.5
20260901133634 55 148 1.0 4.0 0.00 0.00 0.00 88 1013.5
20260901133533 55 117 1.0 4.0 0.00 0.00 0.00 88 1013.4
20260901133446 55 123 1.0 4.0 0.00 0.00 0.00 88 1013.4
20260901133433 55 122 1.0 4.0 0.00 0.00 0.00 88 1013.4
20260901133335 55 87 1.0 4.0 0.00 0.00 0.00 88 1013.4
20260901133231 55 123 1.0 4.0 0.00 0.00 0.00 88 1013.4
20260901133128 55 131 1.0 4.0 0.00 0.00 0.00 88 1013.4
20260901133029 55 136 1.0 3.0 0.00 0.00 0.00 88 1013.4
20260901132928 55 136 1.0 3.0 0.00 0.00 0.00 88 1013.4
20260901132828 55 132 1.0 3.0 0.00 0.00 0.00 88 1013.4
20260901132728 55 129 1.0 3.0 0.00 0.00 0.00 88 1013.4
20260901132626 55 160 1.0 3.0 0.00 0.00 0.00 88 1013.5
20260901132528 55 141 1.0 3.0 0.00 0.00 0.00 88 1013.5
20260901132424 55 132 1.0 3.0 0.00 0.00 0.00 88 1013.5
20260901132325 55 116 1.0 4.0 0.00 0.00 0.00 88 1013.5
20260901132223 55 138 1.0 4.0 0.00 0.00 0.00 88 1013.5
20260901132122 55 214 1.0 4.0 0.00 0.00 0.00 88 1013.5
20260901132024 55 125 1.0 4.0 0.00 0.00 0.00 88 1013.4
20260901131923 55 126 1.0 4.0 0.00 0.00 0.00 88 1013.4
20260901131822 55 143 1.0 4.0 0.00 0.00 0.00 88 1013.4
20260901131718 55 139 1.0 4.0 0.00 0.00 0.00 88 1013.4
20260901131617 55 147 1.0 4.0 0.00 0.00 0.00 88 1013.4
20260901131518 55 146 1.0 4.0 0.00 0.00 0.00 88 1013.4
20260901131439 55 109 1.0 4.0 0.00 0.00 0.00 88 1013.4
20260901131415 55 104 1.0 4.0 0.00 0.00 0.00 88 1013.4
20260901131314 55 155 1.0 3.0 0.00 0.00 0.00 88 1013.3
20260901131209 55 146 1.0 3.0 0.00 0.00 0.00 88 1013.4
20260901131110 55 174 1.0 3.0 0.00 0.00 0.00 88 1013.3
20260901131008 55 136 1.0 4.0 0.00 0.00 0.00 88 1013.3
20260901130940 55 136 1.0 4.0 0.00 0.00 0.00 88 1013.3
20260901130906 55 129 1.0 4.0 0.00 0.00 0.00 88 1013.3
20260901130806 55 110 1.0 4.0 0.00 0.00 0.00 88 1013.3
20260901130701 55 107 1.0 4.0 0.00 0.00 0.00 88 1013.3
20260901130600 55 142 1.0 4.0 0.00 0.00 0.00 88 1013.2
20260901130500 55 143 1.0 4.0 0.00 0.00 0.00 88 1013.2
20260901130441 55 133 1.0 4.0 0.00 0.00 0.00 88 1013.2
20260901130400 55 100 1.0 4.0 0.00 0.00 0.00 88 1013.2
20260901130300 55 101 1.0 4.0 0.00 0.00 0.00 88 1013.2
20260901130157 55 101 1.0 4.0 0.00 0.00 0.00 88 1013.1
20260901130057 55 118 1.0 4.0 0.00 0.00 0.00 88 1013.2
20260901125956 55 103 1.0 2.0 0.00 0.00 0.00 88 1013.1
20260901125933 55 108 1.0 2.0 0.00 0.00 0.00 88 1013.1
20260901125857 55 109 1.0 2.0 0.00 0.00 0.00 88 1013.2
20260901125754 55 108 1.0 2.0 0.00 0.00 0.00 88 1013.2
20260901125657 55 145 1.0 3.0 0.00 0.00 0.00 87 1013.2
20260901125652 55 109 1.0 3.0 0.00 0.00 0.00 88 1013.1
20260901125553 55 147 1.0 3.0 0.00 0.00 0.00 88 1013.2
20260901125539 55 145 1.0 3.0 0.00 0.00 0.00 87 1013.2
20260901125350 55 125 1.0 3.0 0.00 0.00 0.00 87 1013.2
20260901125248 55 166 1.0 5.0 0.00 0.00 0.00 87 1013.1
20260901125144 55 167 1.0 5.0 0.00 0.00 0.00 87 1013.1
20260901125044 55 127 1.0 5.0 0.00 0.00 0.00 87 1013.1
20260901124944 55 103 1.0 5.0 0.00 0.00 0.00 87 1013.1
20260901124921 55 96 1.0 5.0 0.00 0.00 0.00 87 1013.1
20260901124844 55 158 1.0 5.0 0.00 0.00 0.00 87 1013.1
20260901124743 55 158 2.0 5.0 0.00 0.00 0.00 87 1013.1
20260901124650 55 146 2.0 5.0 0.00 0.00 0.00 87 1013.0
20260901124646 55 148 2.0 5.0 0.00 0.00 0.00 87 1013.0
20260901124555 55 99 2.0 5.0 0.00 0.00 0.00 87 1013.0
20260901124536 55 98 2.0 5.0 0.00 0.00 0.00 87 1013.0
20260901124337 55 162 2.0 4.0 0.00 0.00 0.00 87 1013.0
20260901124236 55 118 2.0 4.0 0.00 0.00 0.00 87 1013.0
20260901124132 55 131 1.0 4.0 0.00 0.00 0.00 87 1013.0
20260901124030 55 116 1.0 4.0 0.00 0.00 0.00 87 1013.0
20260901123930 55 115 1.0 5.0 0.00 0.00 0.00 87 1013.0
20260901123909 55 112 2.0 5.0 0.00 0.00 0.00 87 1013.0
20260901123831 55 111 2.0 5.0 0.00 0.00 0.00 87 1013.0
20260901123730 55 115 1.0 5.0 0.00 0.00 0.00 87 1013.0
20260901123626 55 103 1.0 5.0 0.00 0.00 0.00 87 1013.0
20260901123527 55 90 1.0 5.0 0.00 0.00 0.00 86 1013.0
20260901123426 55 107 1.0 5.0 0.00 0.00 0.00 86 1013.0
20260901123403 55 107 2.0 5.0 0.00 0.00 0.00 86 1013.1
20260901123327 55 108 2.0 5.0 0.00 0.00 0.00 86 1013.1
20260901123224 55 107 2.0 5.0 0.00 0.00 0.00 86 1013.0
20260901123118 55 107 3.0 6.0 0.00 0.00 0.00 86 1013.0
20260901123025 55 108 3.0 6.0 0.00 0.00 0.00 86 1013.0
20260901122918 55 112 3.0 6.0 0.00 0.00 0.00 86 1013.0
20260901122900 55 98 3.0 6.0 0.00 0.00 0.00 86 1013.0
20260901122818 55 102 3.0 6.0 0.00 0.00 0.00 86 1013.0
20260901122718 56 74 2.0 6.0 0.00 0.00 0.00 86 1013.0
20260901122615 56 118 2.0 6.0 0.00 0.00 0.00 86 1013.0
20260901122512 56 114 2.0 6.0 0.00 0.00 0.00 86 1012.9
20260901122413 56 113 2.0 6.0 0.00 0.00 0.00 86 1012.9
20260901122352 56 80 2.0 6.0 0.00 0.00 0.00 86 1012.9
20260901122313 56 90 2.0 6.0 0.00 0.00 0.00 86 1012.9
20260901122212 56 115 2.0 6.0 0.00 0.00 0.00 86 1012.9
20260901122106 56 103 1.0 5.0 0.00 0.00 0.00 86 1012.8
20260901122006 56 129 1.0 5.0 0.00 0.00 0.00 86 1012.9
20260901121906 56 95 1.0 4.0 0.00 0.00 0.00 86 1012.9
20260901121845 56 127 1.0 4.0 0.00 0.00 0.00 86 1012.9
20260901121807 56 103 1.0 4.0 0.00 0.00 0.00 86 1012.9
20260901121706 56 127 1.0 4.0 0.00 0.00 0.00 86 1012.9
20260901121607 56 126 1.0 4.0 0.00 0.00 0.00 86 1012.9
20260901121506 56 139 1.0 4.0 0.00 0.00 0.00 86 1012.9
20260901121339 56 139 1.0 4.0 0.00 0.00 0.00 86 1012.9
20260901121302 56 131 1.0 4.0 0.00 0.00 0.00 86 1012.9
20260901121201 56 131 1.0 4.0 0.00 0.00 0.00 86 1012.9
20260901121055 56 131 1.0 4.0 0.00 0.00 0.00 86 1012.9
20260901120954 56 124 1.0 4.0 0.00 0.00 0.00 86 1013.0
20260901120854 56 138 1.0 3.0 0.00 0.00 0.00 86 1012.9
20260901120834 56 139 1.0 3.0 0.00 0.00 0.00 86 1012.9
20260901120755 56 138 1.0 3.0 0.00 0.00 0.00 86 1013.0
20260901120654 56 162 1.0 3.0 0.00 0.00 0.00 86 1013.0
20260901120552 56 135 1.0 3.0 0.00 0.00 0.00 86 1013.0
20260901120548 56 136 1.0 3.0 0.00 0.00 0.00 86 1013.0
20260901120448 56 136 1.0 3.0 0.00 0.00 0.00 86 1013.0
20260901120438 56 135 1.0 3.0 0.00 0.00 0.00 86 1013.0
20260901120248 56 126 1.0 3.0 0.00 0.00 0.00 86 1012.9
20260901120148 56 121 1.0 3.0 0.00 0.00 0.00 86 1012.9
20260901120052 56 210 1.0 3.0 0.00 0.00 0.00 85 1013.0
20260901120046 56 133 1.0 3.0 0.00 0.00 0.00 86 1013.0
20260901115946 56 139 1.0 3.0 0.00 0.00 0.00 85 1012.9
20260901115936 56 210 1.0 3.0 0.00 0.00 0.00 86 1013.0
20260901115642 56 121 1.0 3.0 0.00 0.00 0.00 85 1012.9
20260901115542 56 136 1.0 3.0 0.00 0.00 0.00 85 1012.9
20260901115440 56 129 1.0 3.0 0.00 0.00 0.00 85 1013.0
20260901115326 56 136 1.0 3.0 0.00 0.00 0.00 85 1013.0
20260901115239 56 136 1.0 3.0 0.00 0.00 0.00 85 1013.0
20260901115136 56 136 2.0 3.0 0.00 0.00 0.00 85 1012.9
20260901115031 56 136 2.0 3.0 0.00 0.00 0.00 85 1012.9
20260901114930 56 139 2.0 3.0 0.00 0.00 0.00 85 1012.9
20260901114824 56 139 2.0 3.0 0.00 0.00 0.00 85 1012.9
20260901114730 56 162 2.0 3.0 0.00 0.00 0.00 85 1013.0
20260901114630 56 129 1.0 3.0 0.00 0.00 0.00 85 1013.0
20260901114526 56 135 1.0 3.0 0.00 0.00 0.00 85 1013.0
20260901114424 56 141 1.0 3.0 0.00 0.00 0.00 85 1013.0
20260901114330 56 164 1.0 3.0 0.00 0.00 0.00 84 1013.0
20260901114324 56 163 1.0 3.0 0.00 0.00 0.00 84 1013.0
20260901114224 56 145 1.0 3.0 0.00 0.00 0.00 84 1013.0
20260901114123 56 169 1.0 3.0 0.00 0.00 0.00 84 1013.0
20260901114026 56 149 1.0 3.0 0.00 0.00 0.00 84 1013.0
20260901113922 56 139 1.0 3.0 0.00 0.00 0.00 84 1012.9
20260901113822 56 150 1.0 3.0 0.00 0.00 0.00 84 1012.9
20260901113720 56 146 1.0 4.0 0.00 0.00 0.00 84 1012.9
20260901113619 56 146 1.0 4.0 0.00 0.00 0.00 84 1012.8
20260901113512 56 113 2.0 4.0 0.00 0.00 0.00 84 1012.8
20260901113412 56 113 2.0 4.0 0.00 0.00 0.00 84 1012.8
20260901113322 56 97 2.0 4.0 0.00 0.00 0.00 84 1012.8
20260901113316 56 120 2.0 4.0 0.00 0.00 0.00 84 1012.8
20260901113213 56 129 2.0 4.0 0.00 0.00 0.00 84 1012.8
20260901113113 56 137 2.0 4.0 0.00 0.00 0.00 84 1012.8
20260901113006 56 129 2.0 4.0 0.00 0.00 0.00 84 1012.7
20260901112907 56 143 2.0 4.0 0.00 0.00 0.00 84 1012.7
20260901112821 56 133 2.0 4.0 0.00 0.00 0.00 84 1012.7
20260901112806 56 132 2.0 4.0 0.00 0.00 0.00 84 1012.7
20260901112707 56 135 2.0 4.0 0.00 0.00 0.00 84 1012.7
20260901112607 56 137 2.0 4.0 0.00 0.00 0.00 84 1012.8
20260901112505 56 125 2.0 4.0 0.00 0.00 0.00 84 1012.7
20260901112404 57 134 2.0 4.0 0.00 0.00 0.00 84 1012.8
20260901112322 57 134 2.0 4.0 0.00 0.00 0.00 84 1012.8
20260901112306 57 131 1.0 4.0 0.00 0.00 0.00 84 1012.8
20260901112202 57 129 1.0 4.0 0.00 0.00 0.00 84 1012.8
20260901112100 57 146 1.0 3.0 0.00 0.00 0.00 83 1012.7
20260901111954 57 136 1.0 5.0 0.00 0.00 0.00 83 1012.8
20260901111855 57 134 2.0 7.0 0.00 0.00 0.00 83 1012.7
20260901111820 57 134 2.0 7.0 0.00 0.00 0.00 83 1012.7
20260901111755 57 134 2.0 7.0 0.00 0.00 0.00 83 1012.8
20260901111654 57 136 2.0 7.0 0.00 0.00 0.00 83 1012.8
20260901111554 57 219 2.0 7.0 0.00 0.00 0.00 83 1012.7
20260901111454 57 218 2.0 7.0 0.00 0.00 0.00 83 1012.7
20260901111352 57 122 2.0 7.0 0.00 0.00 0.00 83 1012.7
20260901111319 57 123 2.0 7.0 0.00 0.00 0.00 83 1012.7
20260901111252 57 138 2.0 7.0 0.00 0.00 0.00 83 1012.7
20260901111151 57 123 3.0 7.0 0.00 0.00 0.00 83 1012.7
20260901111048 57 113 3.0 7.0 0.00 0.00 0.00 83 1012.7
20260901110942 57 154 3.0 6.0 0.00 0.00 0.00 83 1012.7
20260901110843 57 158 3.0 6.0 0.00 0.00 0.00 83 1012.6
20260901110820 57 137 3.0 6.0 0.00 0.00 0.00 83 1012.6
20260901110742 57 135 3.0 6.0 0.00 0.00 0.00 83 1012.7
20260901110642 57 136 3.0 6.0 0.00 0.00 0.00 83 1012.7
20260901110543 57 136 3.0 6.0 0.00 0.00 0.00 83 1012.7
20260901110436 57 148 3.0 6.0 0.00 0.00 0.00 82 1012.7
20260901110336 57 156 3.0 6.0 0.00 0.00 0.00 82 1012.7
20260901110321 57 150 3.0 6.0 0.00 0.00 0.00 82 1012.7
20260901110237 57 144 3.0 6.0 0.00 0.00 0.00 82 1012.7
20260901110137 57 155 3.0 6.0 0.00 0.00 0.00 83 1012.7
20260901105932 57 129 3.0 6.0 0.00 0.00 0.00 82 1012.7
20260901105830 57 121 3.0 6.0 0.00 0.00 0.00 82 1012.7
20260901105820 57 158 3.0 6.0 0.00 0.00 0.00 82 1012.7
20260901105730 57 141 3.0 6.0 0.00 0.00 0.00 82 1012.7
20260901105630 57 149 3.0 6.0 0.00 0.00 0.00 82 1012.7
20260901105531 57 167 3.0 6.0 0.00 0.00 0.00 82 1012.7
20260901105424 57 191 2.0 6.0 0.00 0.00 0.00 82 1012.7
20260901105330 57 141 2.0 6.0 0.00 0.00 0.00 82 1012.7
20260901105319 57 160 2.0 6.0 0.00 0.00 0.00 82 1012.7
20260901105224 57 141 2.0 6.0 0.00 0.00 0.00 82 1012.7
20260901105125 57 141 2.0 6.0 0.00 0.00 0.00 82 1012.7
20260901105026 57 111 2.0 7.0 0.00 0.00 0.00 82 1012.7
20260901104925 57 159 2.0 7.0 0.00 0.00 0.00 82 1012.7
20260901104829 57 138 2.0 7.0 0.00 0.00 0.00 82 1012.7
20260901104819 57 155 2.0 7.0 0.00 0.00 0.00 82 1012.7
20260901104725 57 129 2.0 7.0 0.00 0.00 0.00 82 1012.7
20260901104625 57 136 2.0 7.0 0.00 0.00 0.00 82 1012.7
20260901104525 57 148 2.0 7.0 0.00 0.00 0.00 82 1012.7
20260901104425 57 143 2.0 7.0 0.00 0.00 0.00 82 1012.7
20260901104319 57 132 2.0 7.0 0.00 0.00 0.00 83 1012.7
20260901104224 57 161 2.0 7.0 0.00 0.00 0.00 83 1012.6
20260901104124 57 141 2.0 7.0 0.00 0.00 0.00 83 1012.5
20260901104026 57 108 2.0 7.0 0.00 0.00 0.00 83 1012.5
20260901103925 57 116 2.0 7.0 0.00 0.00 0.00 82 1012.5
20260901103824 57 155 3.0 7.0 0.00 0.00 0.00 82 1012.5
20260901103723 57 143 2.0 7.0 0.00 0.00 0.00 82 1012.5
20260901103622 57 149 3.0 7.0 0.00 0.00 0.00 82 1012.5
20260901103524 57 125 3.0 7.0 0.00 0.00 0.00 82 1012.5
20260901103422 57 162 2.0 7.0 0.00 0.00 0.00 82 1012.5
20260901103324 57 122 2.0 7.0 0.00 0.00 0.00 82 1012.4
20260901103216 58 121 3.0 7.0 0.00 0.00 0.00 83 1012.4
20260901103116 57 143 3.0 7.0 0.00 0.00 0.00 83 1012.4
20260901103022 57 92 2.0 6.0 0.00 0.00 0.00 83 1012.4
20260901102916 57 134 3.0 6.0 0.00 0.00 0.00 83 1012.4
20260901102818 57 160 3.0 6.0 0.00 0.00 0.00 83 1012.4
20260901102712 57 150 3.0 6.0 0.00 0.00 0.00 83 1012.4
20260901102610 57 158 3.0 6.0 0.00 0.00 0.00 83 1012.4
20260901102510 57 148 3.0 6.0 0.00 0.00 0.00 83 1012.4
20260901102411 57 165 3.0 6.0 0.00 0.00 0.00 83 1012.4
20260901102315 57 131 3.0 6.0 0.00 0.00 0.00 83 1012.5
20260901102205 57 195 3.0 6.0 0.00 0.00 0.00 83 1012.5
20260901102104 57 136 2.0 6.0 0.00 0.00 0.00 83 1012.4
20260901102004 57 107 2.0 5.0 0.00 0.00 0.00 83 1012.4
20260901101905 57 134 2.0 5.0 0.00 0.00 0.00 83 1012.4
20260901101806 57 146 2.0 5.0 0.00 0.00 0.00 83 1012.4
20260901101704 57 136 2.0 5.0 0.00 0.00 0.00 83 1012.4
20260901101603 57 141 2.0 5.0 0.00 0.00 0.00 83 1012.4
20260901101502 57 139 2.0 5.0 0.00 0.00 0.00 83 1012.4
20260901101401 57 162 2.0 5.0 0.00 0.00 0.00 83 1012.4
20260901101304 57 162 2.0 5.0 0.00 0.00 0.00 84 1012.3
20260901101258 57 165 2.0 5.0 0.00 0.00 0.00 84 1012.3
20260901101156 57 124 2.0 6.0 0.00 0.00 0.00 84 1012.4
20260901101057 57 214 2.0 6.0 0.00 0.00 0.00 84 1012.4
20260901100956 57 127 2.0 6.0 0.00 0.00 0.00 84 1012.4
20260901100854 57 113 2.0 6.0 0.00 0.00 0.00 84 1012.5
20260901100802 57 111 2.0 6.0 0.00 0.00 0.00 84 1012.4
20260901100752 57 138 2.0 6.0 0.00 0.00 0.00 84 1012.4
20260901100653 57 121 3.0 6.0 0.00 0.00 0.00 84 1012.4
20260901100551 57 146 2.0 6.0 0.00 0.00 0.00 84 1012.5
20260901100451 57 95 2.0 6.0 0.00 0.00 0.00 84 1012.5
20260901100348 57 119 2.0 6.0 0.00 0.00 0.00 84 1012.6
20260901100301 57 127 2.0 6.0 0.00 0.00 0.00 84 1012.6
20260901100246 57 146 2.0 6.0 0.00 0.00 0.00 84 1012.6
20260901100140 57 146 2.0 5.0 0.00 0.00 0.00 84 1012.5
20260901100040 57 136 2.0 5.0 0.00 0.00 0.00 84 1012.6
20260901095940 57 136 2.0 5.0 0.00 0.00 0.00 84 1012.6
20260901095840 57 169 2.0 5.0 0.00 0.00 0.00 84 1012.6
20260901095759 57 100 2.0 5.0 0.00 0.00 0.00 84 1012.6
20260901095739 57 114 2.0 5.0 0.00 0.00 0.00 84 1012.6
20260901095635 57 110 2.0 5.0 0.00 0.00 0.00 84 1012.6
20260901095535 57 146 2.0 5.0 0.00 0.00 0.00 84 1012.7
20260901095434 57 139 2.0 5.0 0.00 0.00 0.00 84 1012.7
20260901095334 57 120 2.0 5.0 0.00 0.00 0.00 84 1012.6
20260901095300 57 214 2.0 5.0 0.00 0.00 0.00 84 1012.6
20260901095234 57 230 2.0 5.0 0.00 0.00 0.00 84 1012.6
20260901095132 57 86 2.0 5.0 0.00 0.00 0.00 84 1012.7
20260901095033 57 84 2.0 5.0 0.00 0.00 0.00 84 1012.6
20260901094932 57 142 2.0 5.0 0.00 0.00 0.00 84 1012.6
20260901094830 57 141 2.0 5.0 0.00 0.00 0.00 84 1012.7
20260901094800 57 130 2.0 5.0 0.00 0.00 0.00 84 1012.6
20260901094729 57 150 2.0 5.0 0.00 0.00 0.00 84 1012.6
20260901094625 57 139 2.0 5.0 0.00 0.00 0.00 84 1012.7
20260901094528 57 146 2.0 5.0 0.00 0.00 0.00 84 1012.6
20260901094519 57 145 2.0 5.0 0.00 0.00 0.00 84 1012.5
20260901094424 57 138 2.0 5.0 0.00 0.00 0.00 84 1012.6
20260901094414 57 117 2.0 5.0 0.00 0.00 0.00 84 1012.6
20260901094222 57 155 2.0 5.0 0.00 0.00 0.00 84 1012.6
20260901094116 57 211 2.0 5.0 0.00 0.00 0.00 84 1012.6
20260901094021 57 100 2.0 5.0 0.00 0.00 0.00 84 1012.5
20260901093916 57 103 2.0 5.0 0.00 0.00 0.00 84 1012.5
20260901093816 57 143 2.0 5.0 0.00 0.00 0.00 84 1012.5
20260901093800 57 107 2.0 5.0 0.00 0.00 0.00 84 1012.6
20260901093716 57 117 2.0 5.0 0.00 0.00 0.00 84 1012.5
20260901093611 57 141 2.0 5.0 0.00 0.00 0.00 84 1012.5
20260901093531 57 150 2.0 5.0 0.00 0.00 0.00 84 1012.5
20260901093512 57 136 2.0 5.0 0.00 0.00 0.00 84 1012.5
20260901093435 57 141 2.0 5.0 0.00 0.00 0.00 84 1012.5
20260901093426 57 150 2.0 5.0 0.00 0.00 0.00 84 1012.5
20260901093210 57 191 2.0 5.0 0.00 0.00 0.00 84 1012.5
20260901093105 57 107 2.0 5.0 0.00 0.00 0.00 84 1012.5
20260901093004 57 96 2.0 5.0 0.00 0.00 0.00 84 1012.5
20260901092904 57 117 2.0 5.0 0.00 0.00 0.00 84 1012.5
20260901092810 57 139 2.0 5.0 0.00 0.00 0.00 84 1012.5
20260901092759 57 129 2.0 5.0 0.00 0.00 0.00 84 1012.5
20260901092705 57 124 2.0 5.0 0.00 0.00 0.00 84 1012.5
20260901092604 57 105 2.0 5.0 0.00 0.00 0.00 84 1012.5
20260901092503 57 104 2.0 5.0 0.00 0.00 0.00 84 1012.5
20260901092402 57 104 2.0 5.0 0.00 0.00 0.00 84 1012.5
20260901092300 57 165 2.0 5.0 0.00 0.00 0.00 84 1012.4
20260901092159 57 107 2.0 5.0 0.00 0.00 0.00 84 1012.5
20260901092053 57 114 2.0 5.0 0.00 0.00 0.00 84 1012.5
20260901091952 57 116 2.0 5.0 0.00 0.00 0.00 84 1012.5
20260901091852 57 114 2.0 5.0 0.00 0.00 0.00 84 1012.5
20260901091759 57 132 2.0 5.0 0.00 0.00 0.00 84 1012.6
20260901091753 57 121 2.0 5.0 0.00 0.00 0.00 84 1012.6
20260901091652 57 154 2.0 5.0 0.00 0.00 0.00 84 1012.5
20260901091548 57 115 2.0 5.0 0.00 0.00 0.00 84 1012.5
20260901091448 57 113 2.0 5.0 0.00 0.00 0.00 84 1012.6
20260901091348 57 129 2.0 5.0 0.00 0.00 0.00 84 1012.6
20260901091258 57 101 2.0 5.0 0.00 0.00 0.00 84 1012.6
20260901091248 57 158 2.0 5.0 0.00 0.00 0.00 84 1012.6
20260901091146 57 111 2.0 5.0 0.00 0.00 0.00 84 1012.6
20260901091042 57 135 1.0 5.0 0.00 0.00 0.00 84 1012.6
20260901090940 57 148 1.0 5.0 0.00 0.00 0.00 84 1012.7
20260901090840 57 110 1.0 5.0 0.00 0.00 0.00 84 1012.6
20260901090758 57 140 1.0 5.0 0.00 0.00 0.00 84 1012.6
20260901090741 57 141 1.0 5.0 0.00 0.00 0.00 84 1012.6
20260901090640 57 148 1.0 5.0 0.00 0.00 0.00 84 1012.6
20260901090536 57 155 1.0 5.0 0.00 0.00 0.00 84 1012.7
20260901090435 57 157 2.0 5.0 0.00 0.00 0.00 84 1012.7
20260901090334 57 115 1.0 5.0 0.00 0.00 0.00 84 1012.7
20260901090258 57 93 1.0 5.0 0.00 0.00 0.00 84 1012.7
20260901090234 57 93 1.0 5.0 0.00 0.00 0.00 83 1012.7
20260901090135 57 150 2.0 5.0 0.00 0.00 0.00 83 1012.7
20260901090032 57 141 2.0 5.0 0.00 0.00 0.00 83 1012.7
20260901085932 57 154 2.0 5.0 0.00 0.00 0.00 83 1012.7
20260901085832 57 91 2.0 3.0 0.00 0.00 0.00 83 1012.7
20260901085757 57 97 2.0 5.0 0.00 0.00 0.00 83 1012.7
20260901085732 57 105 2.0 5.0 0.00 0.00 0.00 83 1012.7
20260901085633 57 104 2.0 5.0 0.00 0.00 0.00 83 1012.7
20260901085525 57 88 2.0 8.0 0.00 0.00 0.00 83 1012.7
20260901085422 57 138 2.0 8.0 0.00 0.00 0.00 83 1012.7
20260901085323 57 121 2.0 8.0 0.00 0.00 0.00 83 1012.7
20260901085257 58 218 2.0 8.0 0.00 0.00 0.00 83 1012.7
20260901085221 58 115 2.0 8.0 0.00 0.00 0.00 83 1012.7
20260901085119 58 110 2.0 8.0 0.00 0.00 0.00 83 1012.7
20260901085012 58 162 2.0 8.0 0.00 0.00 0.00 83 1012.7
20260901084912 58 131 2.0 8.0 0.00 0.00 0.00 83 1012.7
20260901084813 58 138 2.0 8.0 0.00 0.00 0.00 83 1012.7
20260901084752 58 129 2.0 8.0 0.00 0.00 0.00 83 1012.7
20260901084712 58 138 3.0 8.0 0.00 0.00 0.00 83 1012.7
20260901084612 58 155 3.0 7.0 0.00 0.00 0.00 83 1012.7
20260901084511 58 155 2.0 7.0 0.00 0.00 0.00 83 1012.7
20260901084410 58 161 2.0 7.0 0.00 0.00 0.00 83 1012.7
20260901084310 58 124 2.0 7.0 0.00 0.00 0.00 83 1012.7
20260901084246 58 169 2.0 7.0 0.00 0.00 0.00 83 1012.7
20260901084209 58 120 3.0 7.0 0.00 0.00 0.00 83 1012.7
20260901084107 58 152 2.0 7.0 0.00 0.00 0.00 83 1012.7
20260901084000 58 144 3.0 7.0 0.00 0.00 0.00 83 1012.7
20260901083901 58 150 3.0 7.0 0.00 0.00 0.00 83 1012.7
20260901083800 58 141 3.0 8.0 0.00 0.00 0.00 83 1012.7
20260901083739 58 146 3.0 8.0 0.00 0.00 0.00 83 1012.7
20260901083700 58 146 3.0 8.0 0.00 0.00 0.00 83 1012.7
20260901083601 58 120 3.0 8.0 0.00 0.00 0.00 83 1012.7
20260901083459 58 120 3.0 8.0 0.00 0.00 0.00 83 1012.7
20260901083358 58 131 3.0 8.0 0.00 0.00 0.00 83 1012.7
20260901083256 58 146 3.0 8.0 0.00 0.00 0.00 83 1012.8
20260901083233 58 99 3.0 8.0 0.00 0.00 0.00 83 1012.8
20260901083156 58 155 3.0 8.0 0.00 0.00 0.00 83 1012.7
20260901083054 58 151 3.0 8.0 0.00 0.00 0.00 83 1012.7
20260901082948 58 145 3.0 8.0 0.00 0.00 0.00 83 1012.7
20260901082848 58 136 3.0 8.0 0.00 0.00 0.00 83 1012.7
20260901082749 58 155 3.0 7.0 0.00 0.00 0.00 83 1012.7
20260901082728 58 104 3.0 7.0 0.00 0.00 0.00 83 1012.7
20260901082648 58 148 2.0 7.0 0.00 0.00 0.00 83 1012.6
20260901082549 58 145 3.0 7.0 0.00 0.00 0.00 83 1012.6
20260901082444 58 169 3.0 7.0 0.00 0.00 0.00 83 1012.6
20260901082345 58 135 3.0 7.0 0.00 0.00 0.00 83 1012.6
20260901082244 58 143 3.0 7.0 0.00 0.00 0.00 83 1012.5
20260901082221 58 99 3.0 7.0 0.00 0.00 0.00 83 1012.5
20260901082144 58 125 3.0 7.0 0.00 0.00 0.00 83 1012.5
20260901082043 58 150 3.0 7.0 0.00 0.00 0.00 83 1012.6
20260901081945 58 125 3.0 7.0 0.00 0.00 0.00 83 1012.6
20260901081936 58 78 3.0 7.0 0.00 0.00 0.00 83 1012.6
20260901081837 58 146 3.0 7.0 0.00 0.00 0.00 83 1012.5
20260901081825 58 149 3.0 7.0 0.00 0.00 0.00 83 1012.5
20260901081636 58 154 3.0 7.0 0.00 0.00 0.00 83 1012.6
20260901081537 58 132 3.0 7.0 0.00 0.00 0.00 83 1012.5
20260901081430 58 145 3.0 7.0 0.00 0.00 0.00 83 1012.6
20260901081330 58 141 3.0 7.0 0.00 0.00 0.00 83 1012.6
20260901081230 58 154 3.0 8.0 0.00 0.00 0.00 83 1012.6
20260901081210 58 131 3.0 8.0 0.00 0.00 0.00 83 1012.6
20260901081130 58 146 3.0 8.0 0.00 0.00 0.00 83 1012.6
20260901081030 57 137 3.0 8.0 0.00 0.00 0.00 83 1012.6
20260901080926 57 172 3.0 8.0 0.00 0.00 0.00 83 1012.6
20260901080826 57 150 3.0 8.0 0.00 0.00 0.00 84 1012.5
20260901080726 57 131 3.0 8.0 0.00 0.00 0.00 83 1012.6
20260901080709 57 121 3.0 8.0 0.00 0.00 0.00 83 1012.5
20260901080626 57 138 3.0 8.0 0.00 0.00 0.00 83 1012.5
20260901080525 57 132 3.0 8.0 0.00 0.00 0.00 83 1012.6
20260901080418 57 182 3.0 8.0 0.00 0.00 0.00 83 1012.6
20260901080318 57 158 3.0 8.0 0.00 0.00 0.00 83 1012.6
20260901080218 57 146 3.0 7.0 0.00 0.00 0.00 83 1012.6
20260901080208 57 205 3.0 7.0 0.00 0.00 0.00 83 1012.6
20260901080118 57 135 3.0 7.0 0.00 0.00 0.00 83 1012.6
20260901080017 57 158 3.0 7.0 0.00 0.00 0.00 83 1012.5
20260901075912 57 143 3.0 7.0 0.00 0.00 0.00 83 1012.5
20260901075812 58 148 2.0 7.0 0.00 0.00 0.00 83 1012.4
20260901075722 58 146 2.0 7.0 0.00 0.00 0.00 83 1012.5
20260901075712 58 148 2.0 7.0 0.00 0.00 0.00 83 1012.5
20260901075612 58 115 2.0 7.0 0.00 0.00 0.00 83 1012.5
20260901075513 58 150 2.0 7.0 0.00 0.00 0.00 83 1012.5
20260901075408 58 134 2.0 7.0 0.00 0.00 0.00 83 1012.4
20260901075309 58 131 2.0 7.0 0.00 0.00 0.00 83 1012.4
20260901075212 58 174 2.0 7.0 0.00 0.00 0.00 83 1012.4
20260901075206 58 173 2.0 7.0 0.00 0.00 0.00 83 1012.4
20260901075107 58 129 2.0 7.0 0.00 0.00 0.00 83 1012.4
20260901075006 58 139 2.0 5.0 0.00 0.00 0.00 83 1012.4
20260901074935 58 136 2.0 7.0 0.00 0.00 0.00 83 1012.4
20260901074901 58 140 2.0 7.0 0.00 0.00 0.00 83 1012.4
20260901074816 58 144 2.0 7.0 0.00 0.00 0.00 83 1012.4
20260901074700 58 146 2.0 7.0 0.00 0.00 0.00 83 1012.4
20260901074601 58 138 2.0 7.0 0.00 0.00 0.00 83 1012.4
20260901074500 58 136 2.0 7.0 0.00 0.00 0.00 83 1012.4
20260901074356 58 164 3.0 7.0 0.00 0.00 0.00 83 1012.4
20260901074256 58 148 3.0 7.0 0.00 0.00 0.00 83 1012.3
20260901074206 58 117 3.0 7.0 0.00 0.00 0.00 83 1012.3
20260901074156 58 139 3.0 7.0 0.00 0.00 0.00 83 1012.3
20260901074056 58 166 3.0 7.0 0.00 0.00 0.00 83 1012.3
20260901073953 58 89 3.0 7.0 0.00 0.00 0.00 83 1012.3
20260901073853 58 150 3.0 6.0 0.00 0.00 0.00 83 1012.4
20260901073752 58 139 3.0 6.0 0.00 0.00 0.00 83 1012.3
20260901073706 58 144 3.0 6.0 0.00 0.00 0.00 83 1012.3
20260901073653 58 148 3.0 6.0 0.00 0.00 0.00 83 1012.3
20260901073558 58 134 3.0 6.0 0.00 0.00 0.00 83 1012.3
20260901073452 58 139 3.0 6.0 0.00 0.00 0.00 83 1012.4
20260901073342 58 130 3.0 6.0 0.00 0.00 0.00 83 1012.4
20260901073242 58 148 3.0 6.0 0.00 0.00 0.00 83 1012.3
20260901073203 58 167 3.0 6.0 0.00 0.00 0.00 83 1012.4
20260901073143 58 104 3.0 6.0 0.00 0.00 0.00 83 1012.4
20260901073044 58 141 2.0 6.0 0.00 0.00 0.00 83 1012.3
20260901072942 58 221 2.0 6.0 0.00 0.00 0.00 83 1012.4
20260901072840 58 165 2.0 6.0 0.00 0.00 0.00 83 1012.4
20260901072740 58 150 2.0 6.0 0.00 0.00 0.00 83 1012.4
20260901072704 58 146 2.0 6.0 0.00 0.00 0.00 83 1012.4
20260901072640 58 141 2.0 6.0 0.00 0.00 0.00 82 1012.4
20260901072539 58 127 2.0 6.0 0.00 0.00 0.00 82 1012.4
20260901072436 58 158 2.0 6.0 0.00 0.00 0.00 82 1012.4
20260901072332 58 144 2.0 7.0 0.00 0.00 0.00 82 1012.3
20260901072230 58 138 2.0 7.0 0.00 0.00 0.00 82 1012.4
20260901072203 58 139 2.0 7.0 0.00 0.00 0.00 82 1012.4
20260901072130 58 145 2.0 7.0 0.00 0.00 0.00 82 1012.4
20260901072030 58 128 2.0 7.0 0.00 0.00 0.00 82 1012.4
20260901071930 58 146 3.0 7.0 0.00 0.00 0.00 82 1012.4
20260901071824 58 136 3.0 7.0 0.00 0.00 0.00 82 1012.4
20260901071725 58 139 3.0 7.0 0.00 0.00 0.00 82 1012.4
20260901071701 58 136 2.0 7.0 0.00 0.00 0.00 82 1012.3
20260901071624 58 150 2.0 7.0 0.00 0.00 0.00 82 1012.3
20260901071525 58 142 2.0 7.0 0.00 0.00 0.00 82 1012.4
20260901071429 58 146 3.0 7.0 0.00 0.00 0.00 82 1012.3
20260901071423 58 134 3.0 7.0 0.00 0.00 0.00 82 1012.3
20260901071325 58 125 3.0 7.0 0.00 0.00 0.00 82 1012.3
20260901071312 58 148 3.0 7.0 0.00 0.00 0.00 82 1012.3
20260901071119 58 136 3.0 7.0 0.00 0.00 0.00 82 1012.3
20260901071021 58 134 3.0 7.0 0.00 0.00 0.00 82 1012.3
20260901070918 58 132 2.0 6.0 0.00 0.00 0.00 82 1012.3
20260901070813 58 214 2.0 6.0 0.00 0.00 0.00 82 1012.3
20260901070713 58 127 3.0 6.0 0.00 0.00 0.00 82 1012.3
20260901070701 58 146 3.0 6.0 0.00 0.00 0.00 82 1012.3
20260901070612 58 146 2.0 6.0 0.00 0.00 0.00 82 1012.3
20260901070515 58 141 2.0 6.0 0.00 0.00 0.00 81 1012.4
20260901070412 59 122 2.0 6.0 0.00 0.00 0.00 81 1012.4
20260901070312 59 100 2.0 5.0 0.00 0.00 0.00 81 1012.4
20260901070215 59 148 2.0 5.0 0.00 0.00 0.00 81 1012.4
20260901070201 59 175 2.0 5.0 0.00 0.00 0.00 81 1012.4
20260901070114 59 139 2.0 5.0 0.00 0.00 0.00 81 1012.4
20260901070017 59 149 2.0 5.0 0.00 0.00 0.00 81 1012.4
20260901065925 59 199 2.0 5.0 0.00 0.00 0.00 81 1012.4
20260901065910 59 149 2.0 5.0 0.00 0.00 0.00 81 1012.4
20260901065811 59 143 2.0 5.0 0.00 0.00 0.00 81 1012.4
20260901065711 59 200 2.0 5.0 0.00 0.00 0.00 81 1012.4
20260901065609 59 139 3.0 8.0 0.00 0.00 0.00 80 1012.3
20260901065506 59 168 3.0 8.0 0.00 0.00 0.00 80 1012.3
20260901065407 59 168 2.0 8.0 0.00 0.00 0.00 80 1012.4
20260901065306 59 155 2.0 8.0 0.00 0.00 0.00 80 1012.3
20260901065212 59 201 2.0 8.0 0.00 0.00 0.00 80 1012.3
20260901065059 59 143 3.0 8.0 0.00 0.00 0.00 80 1012.3
20260901064959 59 167 3.0 8.0 0.00 0.00 0.00 80 1012.3
20260901064859 59 139 3.0 8.0 0.00 0.00 0.00 80 1012.3
20260901064758 59 99 3.0 8.0 0.00 0.00 0.00 80 1012.3
20260901064659 59 152 3.0 8.0 0.00 0.00 0.00 80 1012.3
20260901064554 59 130 3.0 6.0 0.00 0.00 0.00 80 1012.3
20260901064455 59 146 3.0 7.0 0.00 0.00 0.00 80 1012.3
20260901064353 59 129 3.0 7.0 0.00 0.00 0.00 80 1012.4
20260901064253 59 179 3.0 7.0 0.00 0.00 0.00 80 1012.4
20260901064153 59 129 3.0 7.0 0.00 0.00 0.00 80 1012.3
20260901064046 60 120 3.0 7.0 0.00 0.00 0.00 80 1012.3
20260901063946 60 158 3.0 7.0 0.00 0.00 0.00 80 1012.3
20260901063847 60 113 3.0 7.0 0.00 0.00 0.00 80 1012.3
20260901063746 60 143 3.0 7.0 0.00 0.00 0.00 80 1012.3
20260901063648 60 204 3.0 7.0 0.00 0.00 0.00 80 1012.3
20260901063541 60 172 3.0 7.0 0.00 0.00 0.00 80 1012.3
20260901063441 60 141 3.0 7.0 0.00 0.00 0.00 80 1012.3
20260901063341 60 132 3.0 8.0 0.00 0.00 0.00 80 1012.3
20260901063240 60 159 3.0 8.0 0.00 0.00 0.00 80 1012.3
20260901063141 60 129 3.0 8.0 0.00 0.00 0.00 79 1012.4
20260901063036 60 110 3.0 8.0 0.00 0.00 0.00 79 1012.3
20260901062935 60 193 3.0 8.0 0.00 0.00 0.00 79 1012.3
20260901062835 60 155 3.0 8.0 0.00 0.00 0.00 79 1012.3
20260901062734 60 136 3.0 8.0 0.00 0.00 0.00 79 1012.4
20260901062636 60 144 3.0 8.0 0.00 0.00 0.00 79 1012.3
20260901062532 60 191 3.0 8.0 0.00 0.00 0.00 79 1012.3
20260901062431 60 113 3.0 8.0 0.00 0.00 0.00 79 1012.3
20260901062331 60 145 2.0 6.0 0.00 0.00 0.00 79 1012.3
20260901062231 60 195 2.0 6.0 0.00 0.00 0.00 79 1012.3
20260901062138 60 166 2.0 6.0 0.00 0.00 0.00 79 1012.3
20260901062032 60 204 2.0 6.0 0.00 0.00 0.00 79 1012.3
20260901061925 60 121 2.0 6.0 0.00 0.00 0.00 79 1012.3
20260901061829 60 142 2.0 6.0 0.00 0.00 0.00 79 1012.3
20260901061723 60 221 2.0 6.0 0.00 0.00 0.00 80 1012.4
20260901061624 60 207 2.0 6.0 0.00 0.00 0.00 80 1012.4
20260901061518 60 179 2.0 6.0 0.00 0.00 0.00 80 1012.3
20260901061420 60 145 2.0 5.0 0.00 0.00 0.00 80 1012.4
20260901061317 60 214 3.0 5.0 0.00 0.00 0.00 79 1012.4
20260901061217 60 128 3.0 5.0 0.00 0.00 0.00 79 1012.4
20260901061118 60 110 3.0 5.0 0.00 0.00 0.00 79 1012.4
20260901061011 60 135 2.0 5.0 0.00 0.00 0.00 79 1012.3
20260901060910 60 300 3.0 5.0 0.00 0.00 0.00 80 1012.4
20260901060810 60 188 2.0 5.0 0.00 0.00 0.00 80 1012.4
20260901060710 60 150 2.0 5.0 0.00 0.00 0.00 80 1012.4
20260901060611 60 210 2.0 5.0 0.00 0.00 0.00 80 1012.4
20260901060508 60 222 2.0 5.0 0.00 0.00 0.00 80 1012.4
20260901060406 60 201 2.0 5.0 0.00 0.00 0.00 80 1012.3
20260901060306 60 207 2.0 4.0 0.00 0.00 0.00 80 1012.3
20260901060207 60 198 2.0 4.0 0.00 0.00 0.00 80 1012.3
20260901060118 60 142 2.0 10.0 0.00 0.00 0.00 80 1012.3
20260901060000 60 111 2.0 10.0 0.00 0.00 0.00 80 1012.3
20260901055858 60 229 2.0 10.0 0.00 0.00 0.00 80 1012.3
20260901055759 60 123 2.0 10.0 0.00 0.00 0.00 80 1012.3
20260901055659 60 205 2.0 10.0 0.00 0.00 0.00 80 1012.3
20260901055607 60 256 2.0 10.0 0.00 0.00 0.00 80 1012.3
20260901055504 60 158 2.0 10.0 0.00 0.00 0.00 80 1012.3
20260901055401 60 144 2.0 10.0 0.00 0.00 0.00 80 1012.3
20260901055307 60 201 2.0 10.0 0.00 0.00 0.00 80 1012.3
20260901055159 60 204 2.0 10.0 0.00 0.00 0.00 80 1012.3
20260901055058 60 127 2.0 5.0 0.00 0.00 0.00 80 1012.3
20260901054955 60 228 2.0 5.0 0.00 0.00 0.00 80 1012.3
20260901054900 60 238 2.0 5.0 0.00 0.00 0.00 80 1012.2
20260901054757 60 198 2.0 5.0 0.00 0.00 0.00 80 1012.2
20260901054654 60 154 1.0 5.0 0.00 0.00 0.00 80 1012.3
20260901054551 60 225 1.0 5.0 0.00 0.00 0.00 80 1012.3
20260901054441 60 131 1.0 4.0 0.00 0.00 0.00 80 1012.3
20260901054340 60 186 1.0 4.0 0.00 0.00 0.00 80 1012.3
20260901054241 60 125 1.0 5.0 0.00 0.00 0.00 80 1012.2
20260901054141 60 150 1.0 5.0 0.00 0.00 0.00 80 1012.2
20260901054042 60 139 2.0 5.0 0.00 0.00 0.00 80 1012.1
20260901053935 60 164 2.0 5.0 0.00 0.00 0.00 80 1012.1
20260901053835 60 129 2.0 5.0 0.00 0.00 0.00 80 1012.1
20260901053735 60 129 2.0 5.0 0.00 0.00 0.00 80 1012.1
20260901053634 60 232 2.0 6.0 0.00 0.00 0.00 80 1012.1
20260901053537 60 214 2.0 6.0 0.00 0.00 0.00 79 1012.1
20260901053428 60 135 3.0 6.0 0.00 0.00 0.00 79 1012.1
20260901053328 60 136 2.0 6.0 0.00 0.00 0.00 79 1012.1
20260901053251 60 158 2.0 6.0 0.00 0.00 0.00 79 1012.1
20260901053229 60 162 2.0 6.0 0.00 0.00 0.00 79 1012.1
20260901053144 60 200 2.0 6.0 0.00 0.00 0.00 79 1012.1
20260901053134 60 158 2.0 6.0 0.00 0.00 0.00 79 1012.1
20260901052927 60 222 2.0 6.0 0.00 0.00 0.00 79 1012.1
20260901052826 60 208 3.0 6.0 0.00 0.00 0.00 79 1012.1
20260901052725 60 224 2.0 6.0 0.00 0.00 0.00 79 1012.1
20260901052630 60 228 2.0 6.0 0.00 0.00 0.00 79 1012.2
20260901052524 60 146 3.0 6.0 0.00 0.00 0.00 79 1012.2
20260901052416 60 116 3.0 6.0 0.00 0.00 0.00 79 1012.2
20260901052317 60 225 3.0 6.0 0.00 0.00 0.00 79 1012.3
20260901052216 60 188 3.0 6.0 0.00 0.00 0.00 79 1012.3
20260901052117 60 141 3.0 6.0 0.00 0.00 0.00 79 1012.3
20260901052018 60 236 3.0 6.0 0.00 0.00 0.00 79 1012.2
20260901051911 60 219 2.0 6.0 0.00 0.00 0.00 79 1012.1
20260901051811 60 207 2.0 6.0 0.00 0.00 0.00 79 1012.1
20260901051738 60 219 2.0 5.0 0.00 0.00 0.00 79 1012.2
20260901051717 60 211 2.0 6.0 0.00 0.00 0.00 79 1012.1
20260901051629 60 226 2.0 5.0 0.00 0.00 0.00 79 1012.1
20260901051619 60 219 2.0 5.0 0.00 0.00 0.00 79 1012.2
20260901051411 60 233 2.0 5.0 0.00 0.00 0.00 79 1012.1
20260901051308 61 212 2.0 5.0 0.00 0.00 0.00 79 1012.1
20260901051209 61 229 3.0 7.0 0.00 0.00 0.00 79 1012.1
20260901051107 61 168 3.0 7.0 0.00 0.00 0.00 78 1012.1
20260901051005 61 121 3.0 7.0 0.00 0.00 0.00 78 1012.1
20260901050859 61 212 3.0 10.0 0.00 0.00 0.00 78 1012.2
20260901050759 61 201 4.0 10.0 0.00 0.00 0.00 78 1012.1
20260901050725 61 218 4.0 10.0 0.00 0.00 0.00 78 1012.2
20260901050658 61 143 4.0 10.0 0.00 0.00 0.00 78 1012.1
20260901050614 61 150 4.0 10.0 0.00 0.00 0.00 78 1012.2
20260901050604 61 218 4.0 10.0 0.00 0.00 0.00 78 1012.2
20260901050354 61 136 4.0 10.0 0.00 0.00 0.00 78 1012.1
20260901050256 61 169 3.0 10.0 0.00 0.00 0.00 78 1012.1
20260901050155 61 207 4.0 10.0 0.00 0.00 0.00 78 1012.0
20260901050055 61 193 4.0 10.0 0.00 0.00 0.00 78 1012.0
20260901045954 61 245 4.0 10.0 0.00 0.00 0.00 78 1012.0
20260901045846 61 219 4.0 11.0 0.00 0.00 0.00 78 1012.0
20260901045747 61 205 4.0 12.0 0.00 0.00 0.00 78 1012.0
20260901045708 61 158 4.0 12.0 0.00 0.00 0.00 78 1012.0
20260901045646 61 231 4.0 12.0 0.00 0.00 0.00 78 1012.0
20260901045602 61 169 4.0 12.0 0.00 0.00 0.00 77 1012.0
20260901045552 61 158 4.0 12.0 0.00 0.00 0.00 78 1012.0
20260901045345 61 219 4.0 12.0 0.00 0.00 0.00 77 1012.1
20260901045242 61 246 5.0 12.0 0.00 0.00 0.00 77 1012.0
20260901045145 61 232 4.0 12.0 0.00 0.00 0.00 77 1012.0
20260901045045 61 154 4.0 12.0 0.00 0.00 0.00 77 1012.0
20260901044835 61 255 4.0 12.0 0.00 0.00 0.00 77 1012.1
20260901044735 61 218 4.0 9.0 0.00 0.00 0.00 77 1012.0
20260901044652 62 143 5.0 11.0 0.00 0.00 0.00 77 1012.0
20260901044635 61 179 4.0 11.0 0.00 0.00 0.00 77 1012.0
20260901044550 61 236 4.0 11.0 0.00 0.00 0.00 77 1012.0
20260901044540 62 143 5.0 11.0 0.00 0.00 0.00 77 1012.0
20260901044329 62 207 5.0 14.0 0.00 0.00 0.00 77 1011.9
20260901044229 62 212 5.0 14.0 0.00 0.00 0.00 77 1011.9
20260901044150 62 248 5.0 14.0 0.00 0.00 0.00 77 1012.0
20260901044128 62 203 5.0 14.0 0.00 0.00 0.00 77 1012.0
20260901044045 62 230 5.0 14.0 0.00 0.00 0.00 77 1011.9
20260901044034 62 248 5.0 14.0 0.00 0.00 0.00 77 1012.0
20260901043823 62 204 5.0 14.0 0.00 0.00 0.00 77 1012.0
20260901043722 62 243 5.0 14.0 0.00 0.00 0.00 77 1011.9
20260901043641 62 220 4.0 14.0 0.00 0.00 0.00 77 1012.0
20260901043623 62 210 5.0 14.0 0.00 0.00 0.00 77 1011.9
20260901043549 62 190 5.0 14.0 0.00 0.00 0.00 77 1012.0
20260901043528 62 220 4.0 14.0 0.00 0.00 0.00 77 1012.0
20260901043317 62 248 4.0 12.0 0.00 0.00 0.00 77 1012.0
20260901043216 62 163 4.0 12.0 0.00 0.00 0.00 76 1011.9
20260901043117 62 276 4.0 12.0 0.00 0.00 0.00 76 1012.0
20260901043018 62 153 4.0 12.0 0.00 0.00 0.00 76 1012.0
20260901042918 62 146 4.0 12.0 0.00 0.00 0.00 76 1011.9
20260901042812 62 204 4.0 12.0 0.00 0.00 0.00 76 1011.9
20260901042711 62 205 4.0 12.0 0.00 0.00 0.00 76 1012.0
20260901042610 62 212 4.0 12.0 0.00 0.00 0.00 76 1011.9
20260901042515 62 239 4.0 12.0 0.00 0.00 0.00 76 1011.9
20260901042411 62 212 4.0 12.0 0.00 0.00 0.00 76 1011.9
20260901042307 62 158 5.0 9.0 0.00 0.00 0.00 76 1011.9
20260901042211 62 141 5.0 12.0 0.00 0.00 0.00 76 1011.9
20260901042109 62 235 5.0 14.0 0.00 0.00 0.00 76 1011.8
20260901042005 62 154 6.0 14.0 0.00 0.00 0.00 76 1011.8
20260901041905 62 214 6.0 14.0 0.00 0.00 0.00 76 1011.8
20260901041800 62 187 6.0 14.0 0.00 0.00 0.00 76 1011.8
20260901041701 62 230 6.0 14.0 0.00 0.00 0.00 76 1011.8
20260901041601 62 154 6.0 14.0 0.00 0.00 0.00 76 1011.7
20260901041501 62 211 6.0 14.0 0.00 0.00 0.00 76 1011.7
20260901041359 62 239 6.0 14.0 0.00 0.00 0.00 76 1011.7
20260901041255 62 226 6.0 14.0 0.00 0.00 0.00 76 1011.7
20260901041152 62 232 5.0 14.0 0.00 0.00 0.00 76 1011.7
20260901041053 62 243 6.0 12.0 0.00 0.00 0.00 76 1011.7
20260901040952 62 150 6.0 12.0 0.00 0.00 0.00 76 1011.6
20260901040853 62 185 6.0 13.0 0.00 0.00 0.00 76 1011.7
20260901040747 62 82 6.0 13.0 0.00 0.00 0.00 76 1011.7
20260901040647 62 194 6.0 13.0 0.00 0.00 0.00 76 1011.6
20260901040547 62 242 6.0 13.0 0.00 0.00 0.00 76 1011.6
20260901040447 62 240 6.0 13.0 0.00 0.00 0.00 76 1011.6
20260901040347 62 212 6.0 13.0 0.00 0.00 0.00 76 1011.6
20260901040242 62 287 6.0 13.0 0.00 0.00 0.00 76 1011.5
20260901040143 62 238 6.0 13.0 0.00 0.00 0.00 76 1011.6
20260901040042 62 253 6.0 13.0 0.00 0.00 0.00 76 1011.5
20260901035943 62 246 6.0 15.0 0.00 0.00 0.00 76 1011.5
20260901035842 62 226 6.0 15.0 0.00 0.00 0.00 76 1011.5
20260901035734 62 197 6.0 15.0 0.00 0.00 0.00 76 1011.5
20260901035635 62 264 6.0 15.0 0.00 0.00 0.00 76 1011.5
20260901035536 62 262 6.0 15.0 0.00 0.00 0.00 75 1011.5
20260901035435 63 264 7.0 15.0 0.00 0.00 0.00 75 1011.4
20260901035336 63 212 7.0 15.0 0.00 0.00 0.00 75 1011.5
20260901035229 63 246 7.0 15.0 0.00 0.00 0.00 75 1011.5
20260901035128 63 221 7.0 16.0 0.00 0.00 0.00 75 1011.4
20260901035054 63 203 7.0 16.0 0.00 0.00 0.00 75 1011.4
20260901035029 63 219 7.0 16.0 0.00 0.00 0.00 75 1011.5
20260901034944 63 266 7.0 16.0 0.00 0.00 0.00 75 1011.4
20260901034934 63 203 7.0 16.0 0.00 0.00 0.00 75 1011.4
20260901034725 63 212 7.0 16.0 0.00 0.00 0.00 75 1011.4
20260901034622 63 270 7.0 16.0 0.00 0.00 0.00 75 1011.4
20260901034524 63 242 7.0 16.0 0.00 0.00 0.00 75 1011.3
20260901034423 63 225 7.0 16.0 0.00 0.00 0.00 75 1011.3
20260901034333 63 238 7.0 16.0 0.00 0.00 0.00 75 1011.3
20260901034217 63 271 7.0 16.0 0.00 0.00 0.00 75 1011.3
20260901034117 63 229 7.0 14.0 0.00 0.00 0.00 75 1011.2
20260901034017 63 242 7.0 14.0 0.00 0.00 0.00 75 1011.2
20260901033916 63 120 7.0 15.0 0.00 0.00 0.00 75 1011.2
20260901033817 63 263 6.0 15.0 0.00 0.00 0.00 75 1011.2
20260901033711 63 235 7.0 15.0 0.00 0.00 0.00 75 1011.2
20260901033610 63 225 7.0 15.0 0.00 0.00 0.00 76 1011.2
20260901033512 63 203 7.0 15.0 0.00 0.00 0.00 76 1011.2
20260901033411 63 239 7.0 15.0 0.00 0.00 0.00 76 1011.1
20260901033312 63 240 7.0 15.0 0.00 0.00 0.00 76 1011.1
20260901033204 63 218 7.0 15.0 0.00 0.00 0.00 76 1011.1
20260901033105 63 257 7.0 15.0 0.00 0.00 0.00 76 1011.1
20260901033005 63 197 7.0 15.0 0.00 0.00 0.00 76 1011.1
20260901032905 63 260 7.0 14.0 0.00 0.00 0.00 76 1011.1
20260901032805 63 242 7.0 14.0 0.00 0.00 0.00 76 1011.0
20260901032701 63 250 6.0 14.0 0.00 0.00 0.00 75 1011.0
20260901032601 63 239 6.0 14.0 0.00 0.00 0.00 75 1011.0
20260901032517 63 226 6.0 15.0 0.00 0.00 0.00 75 1010.9
20260901032507 63 229 6.0 14.0 0.00 0.00 0.00 75 1011.0
20260901032414 63 262 6.0 14.0 0.00 0.00 0.00 75 1011.0
20260901032404 63 226 6.0 15.0 0.00 0.00 0.00 75 1010.9
20260901032157 63 250 6.0 15.0 0.00 0.00 0.00 75 1010.9
20260901032059 63 257 6.0 15.0 0.00 0.00 0.00 75 1010.9
20260901031958 63 263 6.0 15.0 0.00 0.00 0.00 75 1010.9
20260901031852 63 242 6.0 15.0 0.00 0.00 0.00 75 1010.9
20260901031754 63 259 6.0 15.0 0.00 0.00 0.00 75 1010.8
20260901031734 63 257 6.0 20.0 0.00 0.00 0.00 75 1010.8
20260901031648 63 255 6.0 15.0 0.00 0.00 0.00 75 1010.8
20260901031620 63 233 6.0 15.0 0.00 0.00 0.00 75 1010.8
20260901031449 63 253 6.0 15.0 0.00 0.00 0.00 75 1010.8
20260901031406 63 245 6.0 15.0 0.00 0.00 0.00 75 1010.8
20260901031358 63 221 6.0 20.0 0.00 0.00 0.00 75 1010.8
20260901031148 63 259 6.0 20.0 0.00 0.00 0.00 75 1010.8
20260901031049 63 253 6.0 20.0 0.00 0.00 0.00 75 1010.8
20260901030949 63 232 6.0 20.0 0.00 0.00 0.00 75 1010.8
20260901030849 63 204 6.0 20.0 0.00 0.00 0.00 75 1010.8
20260901030757 63 259 7.0 20.0 0.00 0.00 0.00 75 1010.8
20260901030746 63 246 7.0 20.0 0.00 0.00 0.00 75 1010.8
20260901030649 63 290 6.0 20.0 0.00 0.00 0.00 75 1010.8
20260901030549 63 217 6.0 20.0 0.00 0.00 0.00 75 1010.8
20260901030449 63 245 6.0 20.0 0.00 0.00 0.00 75 1010.7
20260901030349 64 233 6.0 20.0 0.00 0.00 0.00 75 1010.8
20260901030248 64 219 7.0 0.0 0.00 0.00 0.00 75 1010.8
20260901030137 64 236 6.0 17.0 0.00 0.00 0.00 75 1010.7
20260901030037 64 219 7.0 17.0 0.00 0.00 0.00 75 1010.7
20260901025937 64 245 7.0 17.0 0.00 0.00 0.00 75 1010.7
20260901025923 64 134 7.0 17.0 0.00 0.00 0.00 74 1010.7
20260901025836 64 241 6.0 16.0 0.00 0.00 0.00 74 1010.7
20260901025735 64 256 6.0 16.0 0.00 0.00 0.00 74 1010.7
20260901025630 64 210 6.0 16.0 0.00 0.00 0.00 74 1010.7
20260901025531 64 253 7.0 16.0 0.00 0.00 0.00 74 1010.7
20260901025431 64 243 7.0 16.0 0.00 0.00 0.00 74 1010.7
20260901025417 64 262 7.0 16.0 0.00 0.00 0.00 74 1010.7
20260901025330 64 235 7.0 16.0 0.00 0.00 0.00 74 1010.7
20260901025230 64 231 7.0 15.0 0.00 0.00 0.00 74 1010.8
20260901025126 64 212 6.0 14.0 0.00 0.00 0.00 74 1010.7
20260901025025 64 278 6.0 14.0 0.00 0.00 0.00 74 1010.7
20260901024924 64 240 6.0 14.0 0.00 0.00 0.00 74 1010.7
20260901024912 64 195 6.0 14.0 0.00 0.00 0.00 74 1010.7
20260901024825 64 255 6.0 14.0 0.00 0.00 0.00 74 1010.7
20260901024726 64 256 7.0 15.0 0.00 0.00 0.00 74 1010.7
20260901024619 64 193 7.0 15.0 0.00 0.00 0.00 74 1010.7
20260901024519 64 217 7.0 15.0 0.00 0.00 0.00 74 1010.7
20260901024418 64 236 7.0 15.0 0.00 0.00 0.00 73 1010.6
20260901024406 64 228 6.0 15.0 0.00 0.00 0.00 73 1010.8
20260901024319 64 262 6.0 15.0 0.00 0.00 0.00 73 1010.8
20260901024218 64 269 6.0 15.0 0.00 0.00 0.00 73 1010.7
20260901024113 65 214 6.0 15.0 0.00 0.00 0.00 73 1010.6
20260901024012 65 250 7.0 15.0 0.00 0.00 0.00 73 1010.7
20260901023912 65 222 7.0 15.0 0.00 0.00 0.00 73 1010.7
20260901023859 65 288 7.0 15.0 0.00 0.00 0.00 73 1010.7
20260901023813 65 250 7.0 15.0 0.00 0.00 0.00 73 1010.7
20260901023711 65 232 6.0 15.0 0.00 0.00 0.00 73 1010.7
20260901023607 65 229 7.0 15.0 0.00 0.00 0.00 73 1010.6
20260901023508 65 230 7.0 15.0 0.00 0.00 0.00 73 1010.7
20260901023407 65 187 7.0 15.0 0.00 0.00 0.00 72 1010.7
20260901023353 65 200 7.0 15.0 0.00 0.00 0.00 72 1010.7
20260901023306 65 235 7.0 15.0 0.00 0.00 0.00 72 1010.6
20260901023205 65 260 7.0 15.0 0.00 0.00 0.00 72 1010.6
20260901023100 65 274 7.0 15.0 0.00 0.00 0.00 72 1010.7
20260901023000 65 292 6.0 15.0 0.00 0.00 0.00 72 1010.6
20260901022900 65 245 7.0 15.0 0.00 0.00 0.00 72 1010.6
20260901022847 65 243 7.0 15.0 0.00 0.00 0.00 72 1010.6
20260901022800 65 253 7.0 15.0 0.00 0.00 0.00 72 1010.6
20260901022700 65 269 6.0 15.0 0.00 0.00 0.00 72 1010.7
20260901022555 65 256 6.0 15.0 0.00 0.00 0.00 72 1010.6
20260901022454 65 270 6.0 15.0 0.00 0.00 0.00 72 1010.6
20260901022354 65 219 6.0 18.0 0.00 0.00 0.00 72 1010.6
20260901022342 65 264 6.0 18.0 0.00 0.00 0.00 71 1010.6
20260901022254 65 232 6.0 19.0 0.00 0.00 0.00 71 1010.6
20260901022154 66 283 6.0 19.0 0.00 0.00 0.00 71 1010.6
20260901022048 66 232 6.0 19.0 0.00 0.00 0.00 71 1010.6
20260901021948 66 245 7.0 19.0 0.00 0.00 0.00 71 1010.6
20260901021848 66 243 7.0 19.0 0.00 0.00 0.00 71 1010.6
20260901021835 66 245 7.0 19.0 0.00 0.00 0.00 71 1010.6
20260901021749 66 238 6.0 19.0 0.00 0.00 0.00 71 1010.6
20260901021650 66 256 6.0 19.0 0.00 0.00 0.00 71 1010.5
20260901021545 66 238 6.0 19.0 0.00 0.00 0.00 71 1010.5
20260901021443 66 232 6.0 19.0 0.00 0.00 0.00 70 1010.6
20260901021343 66 240 6.0 19.0 0.00 0.00 0.00 70 1010.6
20260901021329 66 280 6.0 19.0 0.00 0.00 0.00 70 1010.6
20260901021243 66 229 6.0 16.0 0.00 0.00 0.00 70 1010.7
20260901021142 66 219 6.0 20.0 0.00 0.00 0.00 70 1010.6
20260901021036 66 211 7.0 20.0 0.00 0.00 0.00 70 1010.6
20260901020936 66 224 7.0 20.0 0.00 0.00 0.00 70 1010.6
20260901020837 66 257 7.0 20.0 0.00 0.00 0.00 70 1010.6
20260901020829 66 214 7.0 20.0 0.00 0.00 0.00 70 1010.6
20260901020737 66 263 7.0 20.0 0.00 0.00 0.00 70 1010.5
20260901020636 66 245 7.0 20.0 0.00 0.00 0.00 69 1010.6
20260901020531 67 256 7.0 20.0 0.00 0.00 0.00 69 1010.6
20260901020431 67 243 7.0 20.0 0.00 0.00 0.00 69 1010.6
20260901020330 67 257 7.0 20.0 0.00 0.00 0.00 69 1010.6
20260901020317 67 236 7.0 20.0 0.00 0.00 0.00 69 1010.6
20260901020231 67 250 6.0 20.0 0.00 0.00 0.00 69 1010.6
20260901020130 67 238 6.0 18.0 0.00 0.00 0.00 69 1010.6
20260901020026 67 266 6.0 18.0 0.00 0.00 0.00 69 1010.6
20260901015925 67 291 6.0 18.0 0.00 0.00 0.00 69 1010.5
20260901015824 67 212 6.0 16.0 0.00 0.00 0.00 68 1010.5
20260901015813 67 264 6.0 16.0 0.00 0.00 0.00 68 1010.5
20260901015725 67 187 6.0 16.0 0.00 0.00 0.00 68 1010.5
20260901015624 67 221 6.0 16.0 0.00 0.00 0.00 68 1010.5
20260901015519 67 274 6.0 16.0 0.00 0.00 0.00 68 1010.4
20260901015419 67 153 6.0 16.0 0.00 0.00 0.00 68 1010.4
20260901015319 67 289 5.0 16.0 0.00 0.00 0.00 68 1010.4
20260901015306 67 222 5.0 16.0 0.00 0.00 0.00 68 1010.4
20260901015218 67 193 5.0 16.0 0.00 0.00 0.00 68 1010.4
20260901015117 68 256 5.0 16.0 0.00 0.00 0.00 67 1010.4
20260901015013 68 262 5.0 15.0 0.00 0.00 0.00 67 1010.4
20260901014913 68 256 5.0 15.0 0.00 0.00 0.00 67 1010.4
20260901014812 68 281 6.0 15.0 0.00 0.00 0.00 67 1010.4
20260901014800 68 228 5.0 15.0 0.00 0.00 0.00 67 1010.4
20260901014712 68 226 5.0 15.0 0.00 0.00 0.00 67 1010.4
20260901014611 68 253 6.0 15.0 0.00 0.00 0.00 67 1010.4
20260901014517 68 248 6.0 15.0 0.00 0.00 0.00 66 1010.4
20260901014507 68 240 6.0 15.0 0.00 0.00 0.00 67 1010.4
20260901014408 68 246 6.0 15.0 0.00 0.00 0.00 67 1010.3
20260901014400 68 253 6.0 15.0 0.00 0.00 0.00 66 1010.4
20260901014206 68 262 6.0 15.0 0.00 0.00 0.00 66 1010.4
20260901014105 68 284 6.0 15.0 0.00 0.00 0.00 66 1010.4
20260901014002 68 224 5.0 14.0 0.00 0.00 0.00 66 1010.4
20260901013902 68 243 5.0 14.0 0.00 0.00 0.00 66 1010.4
20260901013803 68 239 5.0 14.0 0.00 0.00 0.00 66 1010.4
20260901013748 68 230 5.0 14.0 0.00 0.00 0.00 66 1010.4
20260901013702 69 253 4.0 14.0 0.00 0.00 0.00 66 1010.4
20260901013600 69 200 4.0 14.0 0.00 0.00 0.00 65 1010.3
20260901013454 69 280 4.0 14.0 0.00 0.00 0.00 65 1010.3
20260901013355 69 263 4.0 13.0 0.00 0.00 0.00 65 1010.3
20260901013255 69 278 4.0 12.0 0.00 0.00 0.00 65 1010.3
20260901013241 69 267 4.0 12.0 0.00 0.00 0.00 65 1010.3
20260901013154 69 238 4.0 12.0 0.00 0.00 0.00 65 1010.3
20260901013053 69 340 4.0 12.0 0.00 0.00 0.00 64 1010.3
20260901012948 69 229 4.0 12.0 0.00 0.00 0.00 64 1010.3
20260901012849 69 231 4.0 12.0 0.00 0.00 0.00 64 1010.3
20260901012748 69 307 5.0 12.0 0.00 0.00 0.00 64 1010.3
20260901012735 69 317 5.0 12.0 0.00 0.00 0.00 64 1010.3
20260901012649 69 157 5.0 13.0 0.00 0.00 0.00 64 1010.3
20260901012548 69 246 5.0 13.0 0.00 0.00 0.00 64 1010.3
20260901012444 69 288 5.0 13.0 0.00 0.00 0.00 65 1010.3
20260901012342 69 236 4.0 13.0 0.00 0.00 0.00 65 1010.3
20260901012244 69 188 4.0 13.0 0.00 0.00 0.00 65 1010.3
20260901012234 69 246 4.0 13.0 0.00 0.00 0.00 65 1010.3
20260901012142 69 273 4.0 13.0 0.00 0.00 0.00 65 1010.2
20260901012042 69 263 4.0 13.0 0.00 0.00 0.00 64 1010.2
20260901011937 69 257 4.0 13.0 0.00 0.00 0.00 65 1010.2
20260901011837 69 238 5.0 13.0 0.00 0.00 0.00 64 1010.2
20260901011737 69 249 4.0 13.0 0.00 0.00 0.00 64 1010.2
20260901011727 69 207 4.0 13.0 0.00 0.00 0.00 64 1010.2
20260901011637 69 223 4.0 12.0 0.00 0.00 0.00 64 1010.2
20260901011537 69 229 4.0 12.0 0.00 0.00 0.00 64 1010.2
20260901011430 69 257 4.0 12.0 0.00 0.00 0.00 64 1010.2
20260901011330 70 270 5.0 12.0 0.00 0.00 0.00 64 1010.2
20260901011230 70 250 5.0 12.0 0.00 0.00 0.00 64 1010.3
20260901011218 70 236 5.0 12.0 0.00 0.00 0.00 64 1010.2
20260901011131 70 231 5.0 12.0 0.00 0.00 0.00 64 1010.2
20260901011030 70 242 5.0 12.0 0.00 0.00 0.00 64 1010.2
20260901010927 70 243 6.0 13.0 0.00 0.00 0.00 63 1010.3
20260901010824 70 224 6.0 15.0 0.00 0.00 0.00 63 1010.3
20260901010724 70 217 6.0 15.0 0.00 0.00 0.00 63 1010.3
20260901010711 70 246 6.0 15.0 0.00 0.00 0.00 63 1010.3
20260901010625 70 253 6.0 15.0 0.00 0.00 0.00 63 1010.3
20260901010524 70 278 7.0 15.0 0.00 0.00 0.00 63 1010.3
20260901010419 70 233 7.0 18.0 0.00 0.00 0.00 62 1010.3
20260901010318 70 203 7.0 18.0 0.00 0.00 0.00 62 1010.2
20260901010218 70 228 7.0 18.0 0.00 0.00 0.00 62 1010.2
20260901010205 70 226 6.0 18.0 0.00 0.00 0.00 62 1010.2
20260901010119 70 236 6.0 18.0 0.00 0.00 0.00 62 1010.2
20260901010018 70 211 6.0 18.0 0.00 0.00 0.00 62 1010.2
20260901005914 70 312 6.0 18.0 0.00 0.00 0.00 62 1010.2
20260901005812 70 255 5.0 18.0 0.00 0.00 0.00 61 1010.2
20260901005714 71 207 5.0 18.0 0.00 0.00 0.00 61 1010.2
20260901005700 71 248 5.0 18.0 0.00 0.00 0.00 61 1010.2
20260901005613 71 239 5.0 18.0 0.00 0.00 0.00 61 1010.1
20260901005512 71 242 4.0 18.0 0.00 0.00 0.00 61 1010.2
20260901005415 71 228 4.0 15.0 0.00 0.00 0.00 61 1010.2
20260901005406 71 222 4.0 12.0 0.00 0.00 0.00 61 1010.2
20260901005307 71 300 4.0 12.0 0.00 0.00 0.00 61 1010.2
20260901005207 71 238 4.0 15.0 0.00 0.00 0.00 61 1010.2
20260901005106 71 252 4.0 15.0 0.00 0.00 0.00 61 1010.2
20260901005008 71 242 5.0 15.0 0.00 0.00 0.00 61 1010.1
20260901004904 71 239 5.0 15.0 0.00 0.00 0.00 61 1010.1
20260901004804 71 232 5.0 15.0 0.00 0.00 0.00 61 1010.1
20260901004704 71 211 5.0 15.0 0.00 0.00 0.00 61 1010.1
20260901004648 71 263 5.0 15.0 0.00 0.00 0.00 61 1010.1
20260901004602 71 226 5.0 15.0 0.00 0.00 0.00 61 1010.2
20260901004500 71 308 5.0 15.0 0.00 0.00 0.00 60 1010.2
20260901004355 71 238 5.0 15.0 0.00 0.00 0.00 60 1010.3
20260901004254 71 217 5.0 15.0 0.00 0.00 0.00 60 1010.2
20260901004154 71 228 4.0 15.0 0.00 0.00 0.00 60 1010.2
20260901004142 71 287 4.0 15.0 0.00 0.00 0.00 60 1010.2
20260901004125 72 236 4.0 15.0 0.00 0.00 0.00 59 1010.3
20260901004055 71 248 4.0 15.0 0.00 0.00 0.00 60 1010.2
20260901004008 72 270 5.0 15.0 0.00 0.00 0.00 60 1010.3
20260901003850 72 232 4.0 15.0 0.00 0.00 0.00 60 1010.2
20260901003751 72 233 4.0 15.0 0.00 0.00 0.00 59 1010.2
20260901003650 72 262 4.0 15.0 0.00 0.00 0.00 59 1010.3
20260901003550 72 245 5.0 15.0 0.00 0.00 0.00 59 1010.3
20260901003447 72 203 4.0 15.0 0.00 0.00 0.00 60 1010.3
20260901003342 72 250 5.0 15.0 0.00 0.00 0.00 60 1010.3
20260901003242 72 200 4.0 15.0 0.00 0.00 0.00 60 1010.3
20260901003143 72 295 4.0 15.0 0.00 0.00 0.00 59 1010.3
20260901003130 72 214 4.0 15.0 0.00 0.00 0.00 59 1010.3
20260901003112 72 243 5.0 15.0 0.00 0.00 0.00 59 1010.3
20260901003042 72 200 5.0 15.0 0.00 0.00 0.00 59 1010.3
20260901002956 72 215 4.0 15.0 0.00 0.00 0.00 58 1010.4
20260901002836 72 217 5.0 15.0 0.00 0.00 0.00 58 1010.3
20260901002736 73 250 5.0 15.0 0.00 0.00 0.00 58 1010.4
20260901002638 72 241 5.0 15.0 0.00 0.00 0.00 59 1010.4
20260901002536 72 208 5.0 15.0 0.00 0.00 0.00 59 1010.3
20260901002436 72 250 6.0 15.0 0.00 0.00 0.00 59 1010.3
20260901002331 72 274 6.0 15.0 0.00 0.00 0.00 59 1010.3
20260901002230 72 226 6.0 15.0 0.00 0.00 0.00 59 1010.3
20260901002130 72 204 6.0 15.0 0.00 0.00 0.00 58 1010.3
20260901002118 72 234 6.0 15.0 0.00 0.00 0.00 58 1010.3
20260901002030 72 235 6.0 15.0 0.00 0.00 0.00 58 1010.3
20260901001930 72 221 6.0 13.0 0.00 0.00 0.00 58 1010.4
20260901001824 73 241 6.0 13.0 0.00 0.00 0.00 57 1010.4
20260901001724 73 291 6.0 13.0 0.00 0.00 0.00 57 1010.4
20260901001625 73 242 5.0 13.0 0.00 0.00 0.00 57 1010.4
20260901001611 73 259 5.0 13.0 0.00 0.00 0.00 57 1010.4
20260901001524 73 255 5.0 13.0 0.00 0.00 0.00 58 1010.4
20260901001424 73 238 5.0 13.0 0.00 0.00 0.00 58 1010.4
20260901001320 73 219 5.0 13.0 0.00 0.00 0.00 58 1010.4
20260901001218 73 210 6.0 16.0 0.00 0.00 0.00 57 1010.3
20260901001119 73 240 5.0 16.0 0.00 0.00 0.00 58 1010.3
20260901001106 73 259 5.0 16.0 0.00 0.00 0.00 58 1010.3
20260901001019 73 260 5.0 16.0 0.00 0.00 0.00 58 1010.3
20260901000918 73 235 5.0 16.0 0.00 0.00 0.00 57 1010.3
20260901000812 73 235 5.0 16.0 0.00 0.00 0.00 57 1010.4
20260901000715 73 245 5.0 16.0 0.00 0.00 0.00 57 1010.3
20260901000612 73 253 6.0 16.0 0.00 0.00 0.00 57 1010.4
20260901000559 73 226 6.0 16.0 0.00 0.00 0.00 57 1010.4
20260901000512 73 239 6.0 16.0 0.00 0.00 0.00 57 1010.4
20260901000413 73 219 6.0 16.0 0.00 0.00 0.00 57 1010.3
20260901000306 73 231 5.0 16.0 0.00 0.00 0.00 57 1010.4
20260901000207 73 238 6.0 13.0 0.00 0.00 0.00 58 1010.2
20260901000113 73 208 6.0 13.0 0.00 0.00 0.00 57 1010.3
20260901000107 73 264 6.0 13.0 0.00 0.00 0.00 57 1010.3
20260901000008 73 248 6.0 13.0 0.00 0.00 0.00 56 1010.3
20260831235906 73 241 6.0 13.0 0.00 0.00 0.00 56 1010.3
20260831235802 73 222 5.0 13.0 0.00 0.00 0.00 56 1010.3
20260831235701 73 233 5.0 13.0 0.00 0.00 0.00 56 1010.3
20260831235600 73 245 5.0 13.0 0.00 0.00 0.00 56 1010.3
20260831235547 73 252 5.0 13.0 0.00 0.00 0.00 56 1010.3
20260831235500 73 273 5.0 13.0 0.00 0.00 0.00 57 1010.3
20260831235400 73 270 5.0 14.0 0.00 0.00 0.00 56 1010.3
20260831235255 73 238 5.0 14.0 0.00 0.00 0.00 55 1010.3
20260831235154 73 274 4.0 14.0 0.00 0.00 0.00 56 1010.3
20260831235054 74 233 4.0 15.0 0.00 0.00 0.00 56 1010.3
20260831235044 74 248 4.0 15.0 0.00 0.00 0.00 56 1010.3
20260831234954 74 228 5.0 15.0 0.00 0.00 0.00 56 1010.4
20260831234854 74 288 5.0 15.0 0.00 0.00 0.00 56 1010.4
20260831234756 74 248 5.0 15.0 0.00 0.00 0.00 55 1010.4
20260831234751 74 278 5.0 15.0 0.00 0.00 0.00 56 1010.3
20260831234652 74 256 5.0 15.0 0.00 0.00 0.00 56 1010.3
20260831234641 74 259 5.0 15.0 0.00 0.00 0.00 55 1010.4
20260831234450 74 212 5.0 15.0 0.00 0.00 0.00 55 1010.4
20260831234348 74 262 6.0 15.0 0.00 0.00 0.00 55 1010.4
20260831234242 74 239 6.0 15.0 0.00 0.00 0.00 55 1010.4
20260831234142 74 241 5.0 15.0 0.00 0.00 0.00 55 1010.5
20260831234043 74 259 5.0 13.0 0.00 0.00 0.00 55 1010.5
20260831234030 74 214 5.0 13.0 0.00 0.00 0.00 55 1010.5
20260831233942 74 231 5.0 13.0 0.00 0.00 0.00 55 1010.4
20260831233842 74 221 5.0 13.0 0.00 0.00 0.00 55 1010.4
20260831233739 74 228 5.0 13.0 0.00 0.00 0.00 55 1010.4
20260831233639 74 212 5.0 14.0 0.00 0.00 0.00 55 1010.4
20260831233538 74 207 5.0 14.0 0.00 0.00 0.00 55 1010.5
20260831233527 74 152 5.0 14.0 0.00 0.00 0.00 55 1010.5
20260831233438 74 226 5.0 14.0 0.00 0.00 0.00 55 1010.4
20260831233335 74 204 5.0 14.0 0.00 0.00 0.00 55 1010.5
20260831233232 74 284 5.0 14.0 0.00 0.00 0.00 55 1010.4
20260831233131 74 246 5.0 14.0 0.00 0.00 0.00 56 1010.4
20260831233030 74 233 5.0 14.0 0.00 0.00 0.00 55 1010.4
20260831233020 74 201 5.0 14.0 0.00 0.00 0.00 56 1010.5
20260831232930 74 224 5.0 14.0 0.00 0.00 0.00 56 1010.5
20260831232831 74 288 5.0 14.0 0.00 0.00 0.00 55 1010.5
20260831232725 74 215 6.0 13.0 0.00 0.00 0.00 56 1010.5
20260831232624 74 231 6.0 13.0 0.00 0.00 0.00 56 1010.5
20260831232528 74 301 6.0 13.0 0.00 0.00 0.00 56 1010.5
20260831232521 74 256 6.0 13.0 0.00 0.00 0.00 55 1010.6
20260831232425 74 236 6.0 13.0 0.00 0.00 0.00 55 1010.6
20260831232324 74 252 5.0 13.0 0.00 0.00 0.00 56 1010.6
20260831232220 74 278 5.0 13.0 0.00 0.00 0.00 56 1010.6
20260831232118 74 242 6.0 13.0 0.00 0.00 0.00 56 1010.6
20260831232018 74 245 6.0 13.0 0.00 0.00 0.00 56 1010.6
20260831232010 74 233 6.0 13.0 0.00 0.00 0.00 56 1010.6
20260831231918 74 222 6.0 13.0 0.00 0.00 0.00 56 1010.6
20260831231817 74 232 6.0 13.0 0.00 0.00 0.00 55 1010.7
20260831231712 74 238 5.0 13.0 0.00 0.00 0.00 55 1010.7
20260831231612 74 253 5.0 11.0 0.00 0.00 0.00 56 1010.7
20260831231513 74 231 6.0 11.0 0.00 0.00 0.00 56 1010.7
20260831231502 74 231 6.0 11.0 0.00 0.00 0.00 56 1010.7
20260831231413 74 233 6.0 11.0 0.00 0.00 0.00 56 1010.7
20260831231312 74 225 6.0 11.0 0.00 0.00 0.00 55 1010.7
20260831231207 74 219 6.0 11.0 0.00 0.00 0.00 55 1010.7
20260831231106 74 243 6.0 11.0 0.00 0.00 0.00 56 1010.7
20260831231008 74 248 5.0 11.0 0.00 0.00 0.00 56 1010.7
20260831231002 74 215 5.0 11.0 0.00 0.00 0.00 56 1010.7
20260831230906 74 212 5.0 11.0 0.00 0.00 0.00 55 1010.7
20260831230805 74 135 4.0 11.0 0.00 0.00 0.00 55 1010.7
20260831230701 74 172 4.0 11.0 0.00 0.00 0.00 55 1010.7
20260831230600 74 233 4.0 10.0 0.00 0.00 0.00 55 1010.7
20260831230508 75 248 4.0 12.0 0.00 0.00 0.00 55 1010.8
20260831230400 75 193 4.0 14.0 0.00 0.00 0.00 55 1010.7
20260831230259 74 249 4.0 14.0 0.00 0.00 0.00 56 1010.7
20260831230227 74 114 6.0 14.0 0.00 0.00 0.00 57 1010.7
20260831230156 74 271 5.0 14.0 0.00 0.00 0.00 56 1010.7
20260831230113 74 219 5.0 14.0 0.00 0.00 0.00 57 1010.7
20260831225957 74 172 6.0 14.0 0.00 0.00 0.00 57 1010.7
20260831225857 74 314 6.0 17.0 0.00 0.00 0.00 57 1010.7
20260831225753 74 217 6.0 17.0 0.00 0.00 0.00 57 1010.7
20260831225651 74 225 6.0 17.0 0.00 0.00 0.00 56 1010.7
20260831225550 74 273 6.0 17.0 0.00 0.00 0.00 56 1010.8
20260831225502 74 258 6.0 17.0 0.00 0.00 0.00 56 1010.8
20260831225449 74 287 6.0 17.0 0.00 0.00 0.00 56 1010.8
20260831225349 74 190 7.0 17.0 0.00 0.00 0.00 56 1010.8
20260831225248 74 238 6.0 17.0 0.00 0.00 0.00 56 1010.8
20260831225143 74 242 5.0 17.0 0.00 0.00 0.00 55 1010.8
20260831225045 74 248 5.0 17.0 0.00 0.00 0.00 55 1010.9
20260831225003 74 242 4.0 17.0 0.00 0.00 0.00 56 1010.8
20260831224943 74 226 4.0 14.0 0.00 0.00 0.00 56 1010.8
20260831224844 74 245 4.0 14.0 0.00 0.00 0.00 56 1010.8
20260831224742 74 228 4.0 14.0 0.00 0.00 0.00 55 1010.8
20260831224639 75 243 4.0 14.0 0.00 0.00 0.00 55 1010.9
20260831224539 75 197 4.0 14.0 0.00 0.00 0.00 55 1010.8
20260831224502 75 232 4.0 12.0 0.00 0.00 0.00 55 1010.8
20260831224438 75 248 4.0 12.0 0.00 0.00 0.00 55 1010.8
20260831224338 75 294 3.0 12.0 0.00 0.00 0.00 55 1010.8
20260831224237 75 345 3.0 12.0 0.00 0.00 0.00 57 1010.8
20260831224132 75 137 4.0 12.0 0.00 0.00 0.00 56 1010.8
20260831224030 74 211 4.0 12.0 0.00 0.00 0.00 56 1010.9
20260831223931 74 243 4.0 12.0 0.00 0.00 0.00 56 1010.9
20260831223830 74 243 4.0 12.0 0.00 0.00 0.00 56 1010.9
20260831223729 74 252 4.0 12.0 0.00 0.00 0.00 56 1011.0
20260831223624 75 238 4.0 12.0 0.00 0.00 0.00 56 1010.9
20260831223525 75 266 3.0 10.0 0.00 0.00 0.00 56 1010.9
20260831223457 75 217 3.0 10.0 0.00 0.00 0.00 56 1010.9
20260831223424 75 257 3.0 10.0 0.00 0.00 0.00 55 1010.9
20260831223324 75 290 4.0 10.0 0.00 0.00 0.00 56 1010.9
20260831223224 75 253 4.0 12.0 0.00 0.00 0.00 55 1011.0
20260831223123 75 255 4.0 12.0 0.00 0.00 0.00 55 1011.0
20260831223023 75 278 4.0 12.0 0.00 0.00 0.00 56 1011.0
20260831222958 75 225 4.0 12.0 0.00 0.00 0.00 56 1011.0
20260831222923 75 248 4.0 12.0 0.00 0.00 0.00 56 1011.0
20260831222821 75 296 4.0 12.0 0.00 0.00 0.00 56 1010.9
20260831222718 75 278 4.0 12.0 0.00 0.00 0.00 56 1011.0
20260831222613 75 274 4.0 12.0 0.00 0.00 0.00 56 1011.0
20260831222512 74 238 4.0 15.0 0.00 0.00 0.00 56 1011.0
20260831222503 74 232 4.0 15.0 0.00 0.00 0.00 56 1011.0
20260831222412 74 260 4.0 15.0 0.00 0.00 0.00 56 1011.0
20260831222313 74 242 5.0 15.0 0.00 0.00 0.00 56 1011.0
20260831222214 74 256 5.0 15.0 0.00 0.00 0.00 56 1010.9
20260831222112 74 235 5.0 15.0 0.00 0.00 0.00 56 1010.9
20260831222010 74 242 5.0 15.0 0.00 0.00 0.00 56 1011.0
20260831221958 74 263 5.0 15.0 0.00 0.00 0.00 56 1011.0
20260831221909 74 269 5.0 15.0 0.00 0.00 0.00 56 1011.0
20260831221809 74 261 6.0 15.0 0.00 0.00 0.00 56 1011.0
20260831221708 74 243 6.0 15.0 0.00 0.00 0.00 56 1011.0
20260831221609 74 229 6.0 15.0 0.00 0.00 0.00 56 1011.0
20260831221509 75 229 5.0 15.0 0.00 0.00 0.00 55 1011.1
20260831221458 75 232 5.0 15.0 0.00 0.00 0.00 55 1011.1
20260831221408 75 257 4.0 15.0 0.00 0.00 0.00 55 1011.0
20260831221308 75 240 4.0 12.0 0.00 0.00 0.00 56 1011.1
20260831221225 75 259 4.0 12.0 0.00 0.00 0.00 55 1011.1
20260831221210 75 257 4.0 12.0 0.00 0.00 0.00 56 1011.1
20260831221109 75 225 4.0 12.0 0.00 0.00 0.00 55 1011.1
20260831221007 75 221 4.0 12.0 0.00 0.00 0.00 55 1011.1
20260831220906 75 260 4.0 12.0 0.00 0.00 0.00 55 1011.1
20260831220805 75 185 4.0 12.0 0.00 0.00 0.00 55 1011.1
20260831220704 75 256 4.0 12.0 0.00 0.00 0.00 55 1011.2
20260831220603 75 224 4.0 12.0 0.00 0.00 0.00 55 1011.2
20260831220504 76 222 3.0 12.0 0.00 0.00 0.00 55 1011.2
20260831220456 76 223 3.0 12.0 0.00 0.00 0.00 55 1011.2
20260831220402 76 266 3.0 11.0 0.00 0.00 0.00 55 1011.2
20260831220302 76 219 3.0 11.0 0.00 0.00 0.00 55 1011.2
20260831220203 76 262 3.0 11.0 0.00 0.00 0.00 55 1011.1
20260831220100 76 243 4.0 11.0 0.00 0.00 0.00 55 1011.2
20260831220004 75 256 4.0 11.0 0.00 0.00 0.00 56 1011.1
20260831215956 75 243 4.0 11.0 0.00 0.00 0.00 56 1011.1
20260831215858 75 238 4.0 11.0 0.00 0.00 0.00 56 1011.1
20260831215756 75 219 4.0 11.0 0.00 0.00 0.00 56 1011.2
20260831215654 75 219 4.0 13.0 0.00 0.00 0.00 57 1011.2
20260831215554 75 253 5.0 14.0 0.00 0.00 0.00 56 1011.1
20260831215453 75 253 5.0 14.0 0.00 0.00 0.00 56 1011.2
20260831215352 75 201 6.0 14.0 0.00 0.00 0.00 56 1011.2
20260831215252 75 257 6.0 14.0 0.00 0.00 0.00 56 1011.2
20260831215152 75 190 6.0 14.0 0.00 0.00 0.00 57 1011.2
20260831215053 74 198 6.0 14.0 0.00 0.00 0.00 57 1011.2
20260831214953 74 225 7.0 15.0 0.00 0.00 0.00 56 1011.2
20260831214848 74 291 6.0 15.0 0.00 0.00 0.00 56 1011.2
20260831214746 75 266 6.0 15.0 0.00 0.00 0.00 56 1011.2
20260831214646 75 238 6.0 15.0 0.00 0.00 0.00 56 1011.3
20260831214546 75 267 5.0 15.0 0.00 0.00 0.00 55 1011.2
20260831214447 75 267 5.0 15.0 0.00 0.00 0.00 56 1011.2
20260831214340 75 266 5.0 15.0 0.00 0.00 0.00 55 1011.3
20260831214241 75 257 5.0 15.0 0.00 0.00 0.00 55 1011.3
20260831214142 75 116 5.0 15.0 0.00 0.00 0.00 54 1011.3
20260831214040 76 248 4.0 15.0 0.00 0.00 0.00 54 1011.3
20260831213941 76 311 4.0 13.0 0.00 0.00 0.00 55 1011.3
20260831213837 75 224 4.0 13.0 0.00 0.00 0.00 56 1011.3
20260831213736 75 277 5.0 13.0 0.00 0.00 0.00 56 1011.4
20260831213636 75 235 5.0 13.0 0.00 0.00 0.00 55 1011.4
20260831213536 75 203 5.0 13.0 0.00 0.00 0.00 55 1011.4
20260831213436 75 200 4.0 13.0 0.00 0.00 0.00 55 1011.4
20260831213331 75 250 4.0 13.0 0.00 0.00 0.00 55 1011.4
20260831213230 75 248 4.0 12.0 0.00 0.00 0.00 55 1011.4
20260831213130 75 262 4.0 13.0 0.00 0.00 0.00 55 1011.4
20260831213031 75 242 4.0 13.0 0.00 0.00 0.00 55 1011.4
20260831212929 75 284 5.0 13.0 0.00 0.00 0.00 54 1011.4
20260831212823 75 236 4.0 13.0 0.00 0.00 0.00 54 1011.4
20260831212722 75 262 4.0 13.0 0.00 0.00 0.00 54 1011.4
20260831212623 75 270 5.0 13.0 0.00 0.00 0.00 56 1011.4
20260831212523 75 230 5.0 14.0 0.00 0.00 0.00 56 1011.5
20260831212423 75 229 6.0 14.0 0.00 0.00 0.00 55 1011.4
20260831212318 75 239 6.0 14.0 0.00 0.00 0.00 55 1011.5
20260831212216 75 246 5.0 14.0 0.00 0.00 0.00 54 1011.5
20260831212117 75 263 5.0 14.0 0.00 0.00 0.00 55 1011.5
20260831212017 75 240 4.0 14.0 0.00 0.00 0.00 54 1011.5
20260831211931 75 218 4.0 14.0 0.00 0.00 0.00 54 1011.5
20260831211810 75 246 5.0 14.0 0.00 0.00 0.00 55 1011.5
20260831211711 75 170 5.0 14.0 0.00 0.00 0.00 54 1011.5
20260831211611 75 268 5.0 14.0 0.00 0.00 0.00 54 1011.5
20260831211512 75 229 4.0 13.0 0.00 0.00 0.00 55 1011.5
20260831211412 75 218 4.0 13.0 0.00 0.00 0.00 55 1011.4
20260831211306 75 235 5.0 13.0 0.00 0.00 0.00 55 1011.5
20260831211206 75 229 5.0 13.0 0.00 0.00 0.00 55 1011.5
20260831211106 74 238 5.0 13.0 0.00 0.00 0.00 54 1011.5
20260831211006 75 253 5.0 13.0 0.00 0.00 0.00 52 1011.5
20260831210904 75 233 5.0 13.0 0.00 0.00 0.00 52 1011.5
20260831210759 75 219 5.0 13.0 0.00 0.00 0.00 52 1011.5
20260831210700 75 259 5.0 13.0 0.00 0.00 0.00 51 1011.6
20260831210559 75 228 5.0 13.0 0.00 0.00 0.00 52 1011.6
20260831210458 75 260 5.0 11.0 0.00 0.00 0.00 53 1011.5
20260831210412 75 229 5.0 11.0 0.00 0.00 0.00 53 1011.5
20260831210255 75 163 4.0 11.0 0.00 0.00 0.00 54 1011.5
20260831210154 75 233 4.0 11.0 0.00 0.00 0.00 54 1011.5
20260831210055 74 222 5.0 11.0 0.00 0.00 0.00 53 1011.6
20260831205955 74 130 5.0 11.0 0.00 0.00 0.00 53 1011.6
20260831205853 74 248 5.0 12.0 0.00 0.00 0.00 53 1011.6
20260831205833 74 296 4.0 12.0 0.00 0.00 0.00 54 1011.5
20260831205748 74 219 5.0 12.0 0.00 0.00 0.00 53 1011.6
20260831205722 74 236 4.0 12.0 0.00 0.00 0.00 52 1011.6
20260831205546 75 241 4.0 12.0 0.00 0.00 0.00 53 1011.6
20260831205503 74 287 4.0 12.0 0.00 0.00 0.00 55 1011.5
20260831205452 74 296 4.0 12.0 0.00 0.00 0.00 54 1011.5
20260831205241 74 233 4.0 12.0 0.00 0.00 0.00 54 1011.5
20260831205140 75 240 4.0 12.0 0.00 0.00 0.00 53 1011.6
20260831205040 75 224 4.0 12.0 0.00 0.00 0.00 54 1011.6
20260831204940 75 250 4.0 12.0 0.00 0.00 0.00 54 1011.6
20260831204842 75 211 4.0 9.0 0.00 0.00 0.00 55 1011.6
20260831204736 75 255 4.0 9.0 0.00 0.00 0.00 55 1011.6
20260831204635 74 236 5.0 10.0 0.00 0.00 0.00 55 1011.6
20260831204552 75 243 5.0 10.0 0.00 0.00 0.00 54 1011.6
20260831204534 74 236 5.0 10.0 0.00 0.00 0.00 55 1011.6
20260831204450 74 222 5.0 10.0 0.00 0.00 0.00 54 1011.6
20260831204440 75 243 5.0 10.0 0.00 0.00 0.00 54 1011.6
20260831204231 75 215 5.0 10.0 0.00 0.00 0.00 53 1011.6
20260831204128 75 222 5.0 12.0 0.00 0.00 0.00 53 1011.6
20260831204048 74 221 4.0 12.0 0.00 0.00 0.00 54 1011.5
20260831204029 75 193 5.0 12.0 0.00 0.00 0.00 53 1011.6
20260831203944 74 217 4.0 12.0 0.00 0.00 0.00 53 1011.6
20260831203934 74 221 4.0 12.0 0.00 0.00 0.00 54 1011.5
20260831203724 74 215 4.0 12.0 0.00 0.00 0.00 53 1011.6
20260831203625 74 281 4.0 12.0 0.00 0.00 0.00 54 1011.6
20260831203525 74 226 4.0 12.0 0.00 0.00 0.00 54 1011.6
20260831203425 74 224 4.0 12.0 0.00 0.00 0.00 54 1011.5
20260831203324 74 232 4.0 12.0 0.00 0.00 0.00 53 1011.6
20260831203216 74 236 4.0 11.0 0.00 0.00 0.00 54 1011.7
20260831203117 74 214 3.0 10.0 0.00 0.00 0.00 54 1011.7
20260831203036 74 221 3.0 10.0 0.00 0.00 0.00 55 1011.7
20260831203016 74 262 3.0 10.0 0.00 0.00 0.00 54 1011.6
20260831202932 74 237 3.0 10.0 0.00 0.00 0.00 55 1011.6
20260831202922 74 221 3.0 10.0 0.00 0.00 0.00 55 1011.7
20260831202711 74 239 3.0 10.0 0.00 0.00 0.00 55 1011.7
20260831202611 74 256 4.0 10.0 0.00 0.00 0.00 54 1011.7
20260831202510 74 170 4.0 10.0 0.00 0.00 0.00 54 1011.7
20260831202411 74 263 4.0 10.0 0.00 0.00 0.00 56 1011.7
20260831202311 74 243 4.0 10.0 0.00 0.00 0.00 56 1011.7
20260831202204 74 252 4.0 10.0 0.00 0.00 0.00 57 1011.7
20260831202104 73 221 4.0 10.0 0.00 0.00 0.00 56 1011.7
20260831202006 73 256 4.0 10.0 0.00 0.00 0.00 55 1011.7
20260831201904 73 243 4.0 10.0 0.00 0.00 0.00 55 1011.7
20260831201805 73 160 4.0 10.0 0.00 0.00 0.00 54 1011.8
20260831201658 73 246 4.0 10.0 0.00 0.00 0.00 54 1011.7
20260831201559 73 236 4.0 10.0 0.00 0.00 0.00 53 1011.8
20260831201458 73 211 5.0 12.0 0.00 0.00 0.00 54 1011.8
20260831201359 73 81 4.0 12.0 0.00 0.00 0.00 55 1011.8
20260831201259 73 238 5.0 12.0 0.00 0.00 0.00 56 1011.8
20260831201156 73 231 5.0 12.0 0.00 0.00 0.00 58 1011.9
20260831201056 73 275 6.0 12.0 0.00 0.00 0.00 57 1011.9
20260831200954 73 233 6.0 12.0 0.00 0.00 0.00 57 1011.8
20260831200855 73 240 5.0 12.0 0.00 0.00 0.00 57 1011.9
20260831200753 73 198 5.0 12.0 0.00 0.00 0.00 57 1011.9
20260831200646 73 239 5.0 12.0 0.00 0.00 0.00 57 1011.9
20260831200546 73 250 4.0 12.0 0.00 0.00 0.00 57 1011.8
20260831200446 73 208 4.0 11.0 0.00 0.00 0.00 57 1011.9
20260831200347 73 235 3.0 10.0 0.00 0.00 0.00 56 1011.9
20260831200247 73 225 3.0 10.0 0.00 0.00 0.00 56 1011.9
20260831200141 74 235 3.0 10.0 0.00 0.00 0.00 56 1012.0
20260831200040 74 240 2.0 9.0 0.00 0.00 0.00 56 1011.9
20260831195940 74 250 2.0 9.0 0.00 0.00 0.00 56 1011.9
20260831195840 74 221 2.0 9.0 0.00 0.00 0.00 56 1012.0
20260831195741 73 264 2.0 9.0 0.00 0.00 0.00 56 1011.9
20260831195637 73 240 2.0 9.0 0.00 0.00 0.00 57 1012.0
20260831195534 73 210 2.0 11.0 0.00 0.00 0.00 58 1012.0
20260831195435 73 250 3.0 11.0 0.00 0.00 0.00 57 1012.0
20260831195335 73 259 2.0 11.0 0.00 0.00 0.00 57 1012.0
20260831195235 73 270 3.0 11.0 0.00 0.00 0.00 58 1012.0
20260831195134 73 316 3.0 11.0 0.00 0.00 0.00 59 1012.0
20260831195032 72 187 4.0 12.0 0.00 0.00 0.00 59 1012.0
20260831194954 71 238 5.0 13.0 0.00 0.00 0.00 60 1012.1
20260831194930 72 218 4.0 13.0 0.00 0.00 0.00 60 1012.0
20260831194843 72 194 5.0 13.0 0.00 0.00 0.00 60 1012.1
20260831194833 71 238 5.0 13.0 0.00 0.00 0.00 60 1012.1
20260831194622 71 246 6.0 14.0 0.00 0.00 0.00 59 1012.1
20260831194523 71 218 6.0 14.0 0.00 0.00 0.00 60 1012.2
20260831194422 71 276 5.0 14.0 0.00 0.00 0.00 60 1012.2
20260831194322 71 224 5.0 14.0 0.00 0.00 0.00 60 1012.2
20260831194223 71 255 5.0 14.0 0.00 0.00 0.00 59 1012.2
20260831194116 71 250 5.0 14.0 0.00 0.00 0.00 60 1012.2
20260831194016 71 239 6.0 14.0 0.00 0.00 0.00 60 1012.3
20260831193917 71 250 5.0 14.0 0.00 0.00 0.00 61 1012.2
20260831193816 71 207 5.0 14.0 0.00 0.00 0.00 60 1012.3
20260831193718 71 237 4.0 14.0 0.00 0.00 0.00 60 1012.3
20260831193610 71 233 4.0 13.0 0.00 0.00 0.00 62 1012.4
20260831193511 71 219 4.0 13.0 0.00 0.00 0.00 61 1012.4
20260831193410 71 233 4.0 13.0 0.00 0.00 0.00 61 1012.4
20260831193311 71 243 5.0 15.0 0.00 0.00 0.00 61 1012.4
20260831193211 71 219 5.0 15.0 0.00 0.00 0.00 60 1012.4
20260831193105 71 232 4.0 15.0 0.00 0.00 0.00 60 1012.4
20260831193006 71 241 4.0 15.0 0.00 0.00 0.00 61 1012.4
20260831192905 71 312 4.0 15.0 0.00 0.00 0.00 61 1012.4